Time,TemperatureF,DewpointF,PressureIn,WindDirection,WindDirectionDegrees,WindSpeedMPH,WindSpeedGustMPH,Humidity,HourlyPrecipIn,Conditions,Clouds,dailyrainin,SoftwareType,DateUTC
2013-05-25 00:00:00,39.3,39.0,29.87,SW,218,4.0,4.0,99,0.00,,,0.89,Wunderground v.1.15,2013-05-25 04:00:00,
2013-05-25 00:01:00,39.3,39.0,29.87,NNW,332,0.0,5.0,99,0.00,,,0.89,Wunderground v.1.15,2013-05-25 04:01:00,
2013-05-25 00:02:00,39.3,39.0,29.87,NW,309,4.0,5.0,99,0.00,,,0.89,Wunderground v.1.15,2013-05-25 04:02:00,
2013-05-25 00:04:00,39.3,39.0,29.87,NNE,32,4.0,5.0,99,0.00,,,0.89,Wunderground v.1.15,2013-05-25 04:04:00,
2013-05-25 00:05:00,39.3,39.0,29.87,North,355,5.0,5.0,99,0.00,,,0.00,Wunderground v.1.15,2013-05-25 04:05:00,
2013-05-25 00:07:00,39.3,39.0,29.87,NW,305,4.0,5.0,99,0.00,,,0.00,Wunderground v.1.15,2013-05-25 04:07:00,
2013-05-25 00:10:00,39.3,39.0,29.86,South,171,4.0,5.0,99,0.00,,,0.00,Wunderground v.1.15,2013-05-25 04:10:00,
2013-05-25 00:13:00,39.2,38.9,29.86,North,5,4.0,7.0,99,0.00,,,0.00,Wunderground v.1.15,2013-05-25 04:13:00,
2013-05-25 00:14:00,39.3,39.0,29.86,WSW,243,2.0,7.0,99,0.00,,,0.01,Wunderground v.1.15,2013-05-25 04:14:00,
2013-05-25 00:15:00,39.2,38.9,29.86,WNW,293,2.0,7.0,99,0.00,,,0.01,Wunderground v.1.15,2013-05-25 04:15:00,
2013-05-25 00:18:00,39.2,38.9,29.86,NNE,28,0.0,12.0,99,0.00,,,0.01,Wunderground v.1.15,2013-05-25 04:18:00,
2013-05-25 00:19:00,39.2,38.9,29.86,NNW,344,4.0,12.0,99,0.00,,,0.01,Wunderground v.1.15,2013-05-25 04:19:00,
2013-05-25 00:21:00,39.2,38.9,29.86,NNE,26,3.0,4.0,99,0.00,,,0.01,Wunderground v.1.15,2013-05-25 04:21:00,
2013-05-25 00:22:00,39.2,38.9,29.86,WNW,288,1.0,4.0,99,0.00,,,0.01,Wunderground v.1.15,2013-05-25 04:22:00,
2013-05-25 00:25:00,39.2,38.9,29.86,NW,306,4.0,5.0,99,0.00,,,0.01,Wunderground v.1.15,2013-05-25 04:25:00,
2013-05-25 00:26:00,39.2,38.9,29.86,NNE,17,5.0,5.0,99,0.00,,,0.01,Wunderground v.1.15,2013-05-25 04:26:00,
2013-05-25 00:27:00,39.2,38.9,29.86,NNW,332,0.0,5.0,99,0.00,,,0.01,Wunderground v.1.15,2013-05-25 04:27:00,
2013-05-25 00:28:00,39.2,38.9,29.86,WNW,300,12.0,12.0,99,0.00,,,0.01,Wunderground v.1.15,2013-05-25 04:28:00,
2013-05-25 00:32:00,39.3,39.0,29.86,NNE,17,5.0,10.0,99,0.00,,,0.02,Wunderground v.1.15,2013-05-25 04:32:00,
2013-05-25 00:33:00,39.3,39.0,29.86,NE,36,0.0,10.0,99,0.00,,,0.02,Wunderground v.1.15,2013-05-25 04:33:00,
2013-05-25 00:34:00,39.3,39.0,29.86,North,350,2.0,10.0,99,0.00,,,0.02,Wunderground v.1.15,2013-05-25 04:34:00,
2013-05-25 00:39:00,39.3,39.0,29.86,NNW,347,15.0,15.0,99,0.00,,,0.02,Wunderground v.1.15,2013-05-25 04:39:00,
2013-05-25 00:40:00,39.3,39.0,29.86,NNE,17,3.0,5.0,99,0.00,,,0.02,Wunderground v.1.15,2013-05-25 04:40:00,
2013-05-25 00:41:00,39.3,39.0,29.86,North,360,4.0,5.0,99,0.00,,,0.02,Wunderground v.1.15,2013-05-25 04:41:00,
2013-05-25 00:45:00,39.3,39.0,29.86,NNE,14,12.0,12.0,99,0.00,,,0.02,Wunderground v.1.15,2013-05-25 04:45:00,
2013-05-25 00:46:00,39.4,39.1,29.86,North,349,10.0,12.0,99,0.00,,,0.02,Wunderground v.1.15,2013-05-25 04:46:00,
2013-05-25 00:48:00,39.4,39.1,29.85,North,350,5.0,12.0,99,0.00,,,0.02,Wunderground v.1.15,2013-05-25 04:48:00,
2013-05-25 00:49:00,39.4,39.1,29.85,SSW,202,4.0,12.0,99,0.00,,,0.02,Wunderground v.1.15,2013-05-25 04:49:00,
2013-05-25 00:51:00,39.4,39.1,29.85,NNW,327,11.0,11.0,99,0.00,,,0.02,Wunderground v.1.15,2013-05-25 04:51:00,
2013-05-25 00:53:00,39.4,39.1,29.85,NNW,346,7.0,11.0,99,0.00,,,0.03,Wunderground v.1.15,2013-05-25 04:53:00,
2013-05-25 00:54:00,39.4,39.1,29.85,NNW,336,5.0,11.0,99,0.00,,,0.03,Wunderground v.1.15,2013-05-25 04:54:00,
2013-05-25 00:55:00,39.4,39.1,29.85,North,5,6.0,11.0,99,0.00,,,0.03,Wunderground v.1.15,2013-05-25 04:55:00,
2013-05-25 00:56:00,39.4,39.1,29.85,NNW,336,0.0,11.0,99,0.00,,,0.03,Wunderground v.1.15,2013-05-25 04:56:00,
2013-05-25 00:57:00,39.4,39.1,29.85,NNW,330,5.0,11.0,99,0.00,,,0.03,Wunderground v.1.15,2013-05-25 04:57:00,
2013-05-25 01:00:00,39.4,39.1,29.85,North,355,10.0,10.0,99,0.00,,,0.03,Wunderground v.1.15,2013-05-25 05:00:00,
2013-05-25 01:02:00,39.4,39.1,29.85,NW,326,4.0,10.0,99,0.00,,,0.03,Wunderground v.1.15,2013-05-25 05:02:00,
2013-05-25 01:06:00,39.4,39.1,29.85,SW,230,5.0,10.0,99,0.00,,,0.03,Wunderground v.1.15,2013-05-25 05:06:00,
2013-05-25 01:08:00,39.4,39.1,29.86,NNW,337,7.0,10.0,99,0.00,,,0.03,Wunderground v.1.15,2013-05-25 05:08:00,
2013-05-25 01:11:00,39.4,39.1,29.85,North,350,1.0,5.0,99,0.00,,,0.03,Wunderground v.1.15,2013-05-25 05:11:00,
2013-05-25 01:12:00,39.4,39.1,29.85,WNW,297,2.0,5.0,99,0.00,,,0.03,Wunderground v.1.15,2013-05-25 05:12:00,
2013-05-25 01:13:00,39.4,39.1,29.85,NNE,17,0.0,5.0,99,0.00,,,0.03,Wunderground v.1.15,2013-05-25 05:13:00,
2013-05-25 01:16:00,39.5,39.2,29.86,NW,310,0.0,5.0,99,0.00,,,0.03,Wunderground v.1.15,2013-05-25 05:16:00,
2013-05-25 01:17:00,39.5,39.2,29.86,WSW,245,2.0,5.0,99,0.00,,,0.03,Wunderground v.1.15,2013-05-25 05:17:00,
2013-05-25 01:18:00,39.5,39.2,29.86,NNW,333,0.0,5.0,99,0.00,,,0.03,Wunderground v.1.15,2013-05-25 05:18:00,
2013-05-25 01:21:00,39.4,39.1,29.87,WSW,248,6.0,6.0,99,0.00,,,0.04,Wunderground v.1.15,2013-05-25 05:21:00,
2013-05-25 01:22:00,39.4,39.1,29.87,WSW,257,4.0,6.0,99,0.00,,,0.04,Wunderground v.1.15,2013-05-25 05:22:00,
2013-05-25 01:23:00,39.4,39.1,29.87,SW,235,4.0,6.0,99,0.00,,,0.04,Wunderground v.1.15,2013-05-25 05:23:00,
2013-05-25 01:24:00,39.4,39.1,29.87,NW,319,4.0,6.0,99,0.00,,,0.04,Wunderground v.1.15,2013-05-25 05:24:00,
2013-05-25 01:27:00,39.4,39.1,29.87,SW,215,2.0,6.0,99,0.00,,,0.04,Wunderground v.1.15,2013-05-25 05:27:00,
2013-05-25 01:28:00,39.4,39.1,29.87,NNW,348,0.0,6.0,99,0.00,,,0.04,Wunderground v.1.15,2013-05-25 05:28:00,
2013-05-25 01:32:00,39.3,39.0,29.87,East,93,0.0,3.0,99,0.00,,,0.04,Wunderground v.1.15,2013-05-25 05:32:00,
2013-05-25 01:33:00,39.3,39.0,29.87,SSW,197,2.0,3.0,99,0.00,,,0.04,Wunderground v.1.15,2013-05-25 05:33:00,
2013-05-25 01:34:00,39.3,39.0,29.87,NE,42,3.0,3.0,99,0.00,,,0.04,Wunderground v.1.15,2013-05-25 05:34:00,
2013-05-25 01:35:00,39.3,39.0,29.87,NNE,32,0.0,3.0,99,0.00,,,0.04,Wunderground v.1.15,2013-05-25 05:35:00,
2013-05-25 01:39:00,39.2,38.9,29.87,WNW,283,2.0,3.0,99,0.00,,,0.04,Wunderground v.1.15,2013-05-25 05:39:00,
2013-05-25 01:41:00,39.1,38.6,29.87,WSW,248,0.0,1.0,98,0.00,,,0.04,Wunderground v.1.15,2013-05-25 05:41:00,
2013-05-25 01:42:00,39.1,38.6,29.87,NNE,22,0.0,1.0,98,0.00,,,0.04,Wunderground v.1.15,2013-05-25 05:42:00,
2013-05-25 01:43:00,39.0,38.5,29.87,North,11,3.0,3.0,98,0.00,,,0.05,Wunderground v.1.15,2013-05-25 05:43:00,
2013-05-25 01:46:00,38.9,38.4,29.87,NNW,329,8.0,12.0,98,0.00,,,0.05,Wunderground v.1.15,2013-05-25 05:46:00,
2013-05-25 01:48:00,38.9,38.4,29.87,NNW,334,1.0,12.0,98,0.00,,,0.05,Wunderground v.1.15,2013-05-25 05:48:00,
2013-05-25 01:49:00,38.8,38.3,29.87,NW,311,0.0,12.0,98,0.00,,,0.05,Wunderground v.1.15,2013-05-25 05:49:00,
2013-05-25 01:50:00,38.8,38.3,29.87,NNW,348,2.0,3.0,98,0.00,,,0.05,Wunderground v.1.15,2013-05-25 05:50:00,
2013-05-25 01:53:00,38.8,38.5,29.87,North,5,2.0,3.0,99,0.00,,,0.05,Wunderground v.1.15,2013-05-25 05:53:00,
2013-05-25 01:54:00,38.8,38.5,29.87,WNW,301,2.0,3.0,99,0.00,,,0.05,Wunderground v.1.15,2013-05-25 05:54:00,
2013-05-25 01:55:00,38.8,38.5,29.87,NW,315,3.0,3.0,99,0.00,,,0.05,Wunderground v.1.15,2013-05-25 05:55:00,
2013-05-25 01:58:00,38.8,38.5,29.87,North,355,4.0,4.0,99,0.04,,,0.06,Wunderground v.1.15,2013-05-25 05:58:00,
2013-05-25 01:59:00,38.8,38.5,29.87,West,263,2.0,4.0,99,0.04,,,0.06,Wunderground v.1.15,2013-05-25 05:59:00,
2013-05-25 02:00:00,38.8,38.5,29.87,NNW,335,0.0,2.0,99,0.04,,,0.06,Wunderground v.1.15,2013-05-25 06:00:00,
2013-05-25 02:01:00,38.8,38.5,29.87,NW,306,0.0,2.0,99,0.04,,,0.06,Wunderground v.1.15,2013-05-25 06:01:00,
2013-05-25 02:03:00,38.8,38.5,29.86,WNW,302,2.0,4.0,99,0.04,,,0.06,Wunderground v.1.15,2013-05-25 06:03:00,
2013-05-25 02:05:00,38.8,38.5,29.86,NW,317,6.0,10.0,99,0.04,,,0.06,Wunderground v.1.15,2013-05-25 06:05:00,
2013-05-25 02:06:00,38.8,38.5,29.86,West,275,7.0,10.0,99,0.04,,,0.06,Wunderground v.1.15,2013-05-25 06:06:00,
2013-05-25 02:07:00,38.7,38.4,29.86,NNW,345,6.0,10.0,99,0.04,,,0.06,Wunderground v.1.15,2013-05-25 06:07:00,
2013-05-25 02:09:00,38.7,38.4,29.86,NW,315,8.0,11.0,99,0.04,,,0.06,Wunderground v.1.15,2013-05-25 06:09:00,
2013-05-25 02:10:00,38.7,38.4,29.86,SSW,210,3.0,11.0,99,0.04,,,0.06,Wunderground v.1.15,2013-05-25 06:10:00,
2013-05-25 02:11:00,38.7,38.4,29.86,NNW,329,1.0,8.0,99,0.04,,,0.06,Wunderground v.1.15,2013-05-25 06:11:00,
2013-05-25 02:12:00,38.7,38.4,29.86,NNW,343,3.0,8.0,99,0.04,,,0.07,Wunderground v.1.15,2013-05-25 06:12:00,
2013-05-25 02:14:00,38.7,38.4,29.86,NW,310,7.0,8.0,99,0.04,,,0.07,Wunderground v.1.15,2013-05-25 06:14:00,
2013-05-25 02:15:00,38.7,38.4,29.86,NE,43,5.0,10.0,99,0.04,,,0.07,Wunderground v.1.15,2013-05-25 06:15:00,
2013-05-25 02:16:00,38.7,38.4,29.85,East,91,0.0,10.0,99,0.04,,,0.07,Wunderground v.1.15,2013-05-25 06:16:00,
2013-05-25 02:17:00,38.7,38.4,29.86,NW,325,10.0,11.0,99,0.04,,,0.07,Wunderground v.1.15,2013-05-25 06:17:00,
2013-05-25 02:19:00,38.7,38.4,29.85,SSE,157,0.0,11.0,99,0.04,,,0.07,Wunderground v.1.15,2013-05-25 06:19:00,
2013-05-25 02:21:00,38.7,38.4,29.85,North,360,0.0,5.0,99,0.04,,,0.07,Wunderground v.1.15,2013-05-25 06:21:00,
2013-05-25 02:22:00,38.7,38.4,29.86,North,355,2.0,15.0,99,0.04,,,0.07,Wunderground v.1.15,2013-05-25 06:22:00,
2013-05-25 02:25:00,38.7,38.4,29.85,NNW,333,6.0,15.0,99,0.05,,,0.08,Wunderground v.1.15,2013-05-25 06:25:00,
2013-05-25 02:26:00,38.8,38.5,29.86,SW,224,0.0,15.0,99,0.05,,,0.08,Wunderground v.1.15,2013-05-25 06:26:00,
2013-05-25 02:27:00,38.7,38.4,29.85,NNW,328,1.0,15.0,99,0.05,,,0.08,Wunderground v.1.15,2013-05-25 06:27:00,
2013-05-25 02:28:00,38.8,38.5,29.85,North,360,2.0,15.0,99,0.05,,,0.08,Wunderground v.1.15,2013-05-25 06:28:00,
2013-05-25 02:31:00,38.8,38.5,29.86,NW,311,2.0,5.0,99,0.05,,,0.08,Wunderground v.1.15,2013-05-25 06:31:00,
2013-05-25 02:33:00,38.8,38.5,29.85,WNW,283,0.0,6.0,99,0.05,,,0.08,Wunderground v.1.15,2013-05-25 06:33:00,
2013-05-25 02:36:00,38.8,38.5,29.85,NE,38,2.0,9.0,99,0.05,,,0.08,Wunderground v.1.15,2013-05-25 06:36:00,
2013-05-25 02:38:00,38.8,38.5,29.85,WSW,241,2.0,9.0,99,0.05,,,0.08,Wunderground v.1.15,2013-05-25 06:38:00,
2013-05-25 02:39:00,38.8,38.5,29.85,NW,312,2.0,22.0,99,0.04,,,0.09,Wunderground v.1.15,2013-05-25 06:39:00,
2013-05-25 02:41:00,38.8,38.5,29.85,NW,319,3.0,5.0,99,0.04,,,0.09,Wunderground v.1.15,2013-05-25 06:41:00,
2013-05-25 02:42:00,38.8,38.5,29.85,ENE,65,2.0,9.0,99,0.04,,,0.09,Wunderground v.1.15,2013-05-25 06:42:00,
2013-05-25 02:43:00,38.9,38.6,29.85,North,11,11.0,11.0,99,0.04,,,0.09,Wunderground v.1.15,2013-05-25 06:43:00,
2013-05-25 02:44:00,38.8,38.5,29.85,NW,311,4.0,11.0,99,0.04,,,0.09,Wunderground v.1.15,2013-05-25 06:44:00,
2013-05-25 02:46:00,38.8,38.5,29.85,NNW,348,2.0,13.0,99,0.04,,,0.09,Wunderground v.1.15,2013-05-25 06:46:00,
2013-05-25 02:48:00,38.8,38.5,29.85,NW,321,0.0,13.0,99,0.04,,,0.09,Wunderground v.1.15,2013-05-25 06:48:00,
2013-05-25 02:49:00,38.8,38.3,29.85,NNW,336,4.0,13.0,98,0.04,,,0.09,Wunderground v.1.15,2013-05-25 06:49:00,
2013-05-25 02:52:00,38.8,38.3,29.85,NE,38,0.0,8.0,98,0.04,,,0.09,Wunderground v.1.15,2013-05-25 06:52:00,
2013-05-25 02:53:00,38.9,38.4,29.85,NNW,329,3.0,8.0,98,0.04,,,0.10,Wunderground v.1.15,2013-05-25 06:53:00,
2013-05-25 02:54:00,38.9,38.4,29.85,NNE,15,9.0,9.0,98,0.04,,,0.10,Wunderground v.1.15,2013-05-25 06:54:00,
2013-05-25 02:55:00,38.8,38.3,29.85,SW,236,6.0,9.0,98,0.04,,,0.10,Wunderground v.1.15,2013-05-25 06:55:00,
2013-05-25 02:57:00,38.8,38.3,29.85,NE,36,9.0,12.0,98,0.04,,,0.10,Wunderground v.1.15,2013-05-25 06:57:00,
2013-05-25 02:58:00,38.8,38.3,29.85,NNW,332,4.0,12.0,98,0.04,,,0.10,Wunderground v.1.15,2013-05-25 06:58:00,
2013-05-25 02:59:00,38.8,38.3,29.85,SSW,196,0.0,12.0,98,0.04,,,0.10,Wunderground v.1.15,2013-05-25 06:59:00,
2013-05-25 03:00:00,38.9,38.4,29.85,West,269,3.0,4.0,98,0.04,,,0.10,Wunderground v.1.15,2013-05-25 07:00:00,
2013-05-25 03:02:00,38.9,38.4,29.85,NNW,339,0.0,8.0,98,0.04,,,0.10,Wunderground v.1.15,2013-05-25 07:02:00,
2013-05-25 03:03:00,38.9,38.4,29.85,NNW,336,6.0,9.0,98,0.04,,,0.10,Wunderground v.1.15,2013-05-25 07:03:00,
2013-05-25 03:04:00,38.9,38.4,29.85,WSW,242,1.0,9.0,98,0.04,,,0.10,Wunderground v.1.15,2013-05-25 07:04:00,
2013-05-25 03:05:00,38.8,38.3,29.85,North,5,4.0,9.0,98,0.04,,,0.10,Wunderground v.1.15,2013-05-25 07:05:00,
2013-05-25 03:06:00,38.9,38.4,29.85,NW,314,2.0,9.0,98,0.04,,,0.10,Wunderground v.1.15,2013-05-25 07:06:00,
2013-05-25 03:08:00,38.9,38.4,29.85,NW,313,2.0,9.0,98,0.04,,,0.11,Wunderground v.1.15,2013-05-25 07:08:00,
2013-05-25 03:09:00,38.8,38.3,29.85,NE,53,8.0,11.0,98,0.04,,,0.11,Wunderground v.1.15,2013-05-25 07:09:00,
2013-05-25 03:10:00,38.8,38.3,29.85,North,5,2.0,11.0,98,0.04,,,0.11,Wunderground v.1.15,2013-05-25 07:10:00,
2013-05-25 03:11:00,38.8,38.3,29.85,NE,42,3.0,10.0,98,0.04,,,0.11,Wunderground v.1.15,2013-05-25 07:11:00,
2013-05-25 03:14:00,38.8,38.3,29.85,North,5,6.0,15.0,98,0.04,,,0.11,Wunderground v.1.15,2013-05-25 07:14:00,
2013-05-25 03:15:00,38.8,38.3,29.85,NW,314,4.0,15.0,98,0.04,,,0.11,Wunderground v.1.15,2013-05-25 07:15:00,
2013-05-25 03:16:00,38.9,38.4,29.85,NNE,23,11.0,15.0,98,0.04,,,0.11,Wunderground v.1.15,2013-05-25 07:16:00,
2013-05-25 03:19:00,38.9,38.4,29.85,NNE,28,7.0,15.0,98,0.04,,,0.11,Wunderground v.1.15,2013-05-25 07:19:00,
2013-05-25 03:20:00,38.9,38.4,29.84,NNW,336,5.0,15.0,98,0.04,,,0.11,Wunderground v.1.15,2013-05-25 07:20:00,
2013-05-25 03:21:00,38.9,38.4,29.84,NNE,15,11.0,12.0,98,0.04,,,0.12,Wunderground v.1.15,2013-05-25 07:21:00,
2013-05-25 03:24:00,38.9,38.4,29.84,NE,35,4.0,12.0,98,0.04,,,0.12,Wunderground v.1.15,2013-05-25 07:24:00,
2013-05-25 03:25:00,38.9,38.4,29.84,NNE,17,4.0,12.0,98,0.04,,,0.12,Wunderground v.1.15,2013-05-25 07:25:00,
2013-05-25 03:26:00,38.9,38.4,29.84,NNW,336,6.0,12.0,98,0.04,,,0.12,Wunderground v.1.15,2013-05-25 07:26:00,
2013-05-25 03:30:00,38.9,38.1,29.84,NNE,13,1.0,12.0,97,0.04,,,0.12,Wunderground v.1.15,2013-05-25 07:30:00,
2013-05-25 03:31:00,38.9,38.1,29.84,ENE,66,0.0,9.0,97,0.04,,,0.12,Wunderground v.1.15,2013-05-25 07:31:00,
2013-05-25 03:32:00,38.9,38.1,29.84,NNE,13,0.0,9.0,97,0.04,,,0.12,Wunderground v.1.15,2013-05-25 07:32:00,
2013-05-25 03:35:00,38.9,38.1,29.84,WNW,302,0.0,9.0,97,0.04,,,0.12,Wunderground v.1.15,2013-05-25 07:35:00,
2013-05-25 03:36:00,38.9,38.1,29.84,West,276,4.0,9.0,97,0.04,,,0.12,Wunderground v.1.15,2013-05-25 07:36:00,
2013-05-25 03:37:00,38.9,38.1,29.84,North,360,2.0,9.0,97,0.04,,,0.13,Wunderground v.1.15,2013-05-25 07:37:00,
2013-05-25 03:40:00,38.9,38.1,29.84,NNE,26,8.0,8.0,97,0.04,,,0.13,Wunderground v.1.15,2013-05-25 07:40:00,
2013-05-25 03:41:00,38.9,38.1,29.83,North,5,2.0,18.0,97,0.04,,,0.13,Wunderground v.1.15,2013-05-25 07:41:00,
2013-05-25 03:42:00,39.0,38.2,29.84,North,360,1.0,18.0,97,0.04,,,0.13,Wunderground v.1.15,2013-05-25 07:42:00,
2013-05-25 03:45:00,39.1,38.3,29.83,WSW,257,5.0,18.0,97,0.04,,,0.13,Wunderground v.1.15,2013-05-25 07:45:00,
2013-05-25 03:46:00,39.1,38.3,29.83,NE,43,2.0,18.0,97,0.04,,,0.13,Wunderground v.1.15,2013-05-25 07:46:00,
2013-05-25 03:47:00,39.1,38.1,29.83,NNE,28,2.0,18.0,96,0.04,,,0.13,Wunderground v.1.15,2013-05-25 07:47:00,
2013-05-25 03:50:00,39.2,38.2,29.83,NNW,338,7.0,10.0,96,0.05,,,0.14,Wunderground v.1.15,2013-05-25 07:50:00,
2013-05-25 03:51:00,39.2,38.2,29.83,NNE,30,2.0,10.0,96,0.05,,,0.14,Wunderground v.1.15,2013-05-25 07:51:00,
2013-05-25 03:53:00,39.2,38.2,29.83,NE,42,3.0,10.0,96,0.05,,,0.14,Wunderground v.1.15,2013-05-25 07:53:00,
2013-05-25 03:56:00,39.2,38.2,29.83,NW,319,4.0,16.0,96,0.05,,,0.14,Wunderground v.1.15,2013-05-25 07:56:00,
2013-05-25 03:57:00,39.3,38.3,29.83,North,10,1.0,16.0,96,0.05,,,0.14,Wunderground v.1.15,2013-05-25 07:57:00,
2013-05-25 03:58:00,39.3,38.3,29.83,NNE,13,13.0,16.0,96,0.05,,,0.14,Wunderground v.1.15,2013-05-25 07:58:00,
2013-05-25 04:01:00,39.3,38.3,29.83,SW,221,5.0,11.0,96,0.05,,,0.14,Wunderground v.1.15,2013-05-25 08:01:00,
2013-05-25 04:02:00,39.3,38.3,29.83,North,5,6.0,16.0,96,0.05,,,0.14,Wunderground v.1.15,2013-05-25 08:02:00,
2013-05-25 04:03:00,39.3,38.3,29.83,NNW,335,9.0,16.0,96,0.04,,,0.14,Wunderground v.1.15,2013-05-25 08:03:00,
2013-05-25 04:04:00,39.3,38.3,29.83,NNW,339,4.0,16.0,96,0.04,,,0.14,Wunderground v.1.15,2013-05-25 08:04:00,
2013-05-25 04:06:00,39.3,38.3,29.83,NE,55,4.0,16.0,96,0.04,,,0.15,Wunderground v.1.15,2013-05-25 08:06:00,
2013-05-25 04:07:00,39.3,38.0,29.83,NE,40,5.0,16.0,95,0.04,,,0.15,Wunderground v.1.15,2013-05-25 08:07:00,
2013-05-25 04:08:00,39.3,38.0,29.83,East,80,4.0,16.0,95,0.04,,,0.15,Wunderground v.1.15,2013-05-25 08:08:00,
2013-05-25 04:09:00,39.3,38.0,29.83,NE,56,2.0,16.0,95,0.04,,,0.15,Wunderground v.1.15,2013-05-25 08:09:00,
2013-05-25 04:11:00,39.3,38.0,29.83,NE,34,3.0,15.0,95,0.04,,,0.15,Wunderground v.1.15,2013-05-25 08:11:00,
2013-05-25 04:12:00,39.3,38.0,29.83,NNW,340,4.0,15.0,95,0.04,,,0.15,Wunderground v.1.15,2013-05-25 08:12:00,
2013-05-25 04:14:00,39.3,38.0,29.84,NNW,345,2.0,15.0,95,0.04,,,0.15,Wunderground v.1.15,2013-05-25 08:14:00,
2013-05-25 04:15:00,39.3,38.0,29.83,NE,36,9.0,15.0,95,0.04,,,0.15,Wunderground v.1.15,2013-05-25 08:15:00,
2013-05-25 04:17:00,39.3,38.3,29.84,NNE,24,6.0,15.0,96,0.04,,,0.15,Wunderground v.1.15,2013-05-25 08:17:00,
2013-05-25 04:19:00,39.3,38.0,29.83,North,355,6.0,15.0,95,0.04,,,0.15,Wunderground v.1.15,2013-05-25 08:19:00,
2013-05-25 04:20:00,39.3,38.0,29.83,NNE,32,0.0,6.0,95,0.04,,,0.15,Wunderground v.1.15,2013-05-25 08:20:00,
2013-05-25 04:22:00,39.3,38.3,29.83,NNE,21,8.0,12.0,96,0.04,,,0.16,Wunderground v.1.15,2013-05-25 08:22:00,
2013-05-25 04:24:00,39.3,38.0,29.83,NNW,333,5.0,13.0,95,0.04,,,0.16,Wunderground v.1.15,2013-05-25 08:24:00,
2013-05-25 04:25:00,39.3,38.3,29.83,NNW,343,3.0,13.0,96,0.04,,,0.16,Wunderground v.1.15,2013-05-25 08:25:00,
2013-05-25 04:27:00,39.3,38.0,29.83,NE,49,5.0,13.0,95,0.04,,,0.16,Wunderground v.1.15,2013-05-25 08:27:00,
2013-05-25 04:30:00,39.3,38.0,29.83,NNE,12,9.0,13.0,95,0.04,,,0.16,Wunderground v.1.15,2013-05-25 08:30:00,
2013-05-25 04:32:00,39.3,38.3,29.83,SSW,207,1.0,14.0,96,0.04,,,0.16,Wunderground v.1.15,2013-05-25 08:32:00,
2013-05-25 04:33:00,39.3,38.3,29.83,ESE,109,9.0,14.0,96,0.04,,,0.16,Wunderground v.1.15,2013-05-25 08:33:00,
2013-05-25 04:36:00,39.3,38.3,29.83,NW,315,4.0,14.0,96,0.04,,,0.16,Wunderground v.1.15,2013-05-25 08:36:00,
2013-05-25 04:37:00,39.3,38.3,29.83,NE,48,0.0,14.0,96,0.04,,,0.16,Wunderground v.1.15,2013-05-25 08:37:00,
2013-05-25 04:38:00,39.3,38.3,29.83,NNE,26,3.0,14.0,96,0.04,,,0.16,Wunderground v.1.15,2013-05-25 08:38:00,
2013-05-25 04:41:00,39.3,38.3,29.83,NNW,330,5.0,16.0,96,0.04,,,0.17,Wunderground v.1.15,2013-05-25 08:41:00,
2013-05-25 04:43:00,39.3,38.3,29.83,North,360,11.0,20.0,96,0.04,,,0.17,Wunderground v.1.15,2013-05-25 08:43:00,
2013-05-25 04:46:00,39.5,38.2,29.83,NNW,338,1.0,21.0,95,0.04,,,0.17,Wunderground v.1.15,2013-05-25 08:46:00,
2013-05-25 04:47:00,39.4,38.1,29.83,NNW,338,0.0,21.0,95,0.04,,,0.17,Wunderground v.1.15,2013-05-25 08:47:00,
2013-05-25 04:48:00,39.5,38.2,29.83,NNE,22,6.0,21.0,95,0.04,,,0.17,Wunderground v.1.15,2013-05-25 08:48:00,
2013-05-25 04:52:00,39.5,38.5,29.83,NE,36,4.0,5.0,96,0.04,,,0.17,Wunderground v.1.15,2013-05-25 08:52:00,
2013-05-25 04:53:00,39.4,38.4,29.83,NNE,15,5.0,7.0,96,0.04,,,0.17,Wunderground v.1.15,2013-05-25 08:53:00,
2013-05-25 04:57:00,39.4,38.1,29.84,East,98,6.0,13.0,95,0.04,,,0.18,Wunderground v.1.15,2013-05-25 08:57:00,
2013-05-25 04:58:00,39.4,38.1,29.84,NW,321,10.0,17.0,95,0.04,,,0.18,Wunderground v.1.15,2013-05-25 08:58:00,
2013-05-25 05:02:00,39.5,38.2,29.83,ENE,65,1.0,10.0,95,0.04,,,0.18,Wunderground v.1.15,2013-05-25 09:02:00,
2013-05-25 05:03:00,39.4,38.1,29.83,NE,34,3.0,10.0,95,0.04,,,0.18,Wunderground v.1.15,2013-05-25 09:03:00,
2013-05-25 05:05:00,39.4,38.4,29.83,NE,36,2.0,10.0,96,0.04,,,0.18,Wunderground v.1.15,2013-05-25 09:05:00,
2013-05-25 05:07:00,39.4,38.4,29.83,NW,323,4.0,14.0,96,0.04,,,0.18,Wunderground v.1.15,2013-05-25 09:07:00,
2013-05-25 05:08:00,39.3,38.3,29.83,NNW,345,8.0,14.0,96,0.04,,,0.18,Wunderground v.1.15,2013-05-25 09:08:00,
2013-05-25 05:09:00,39.3,38.3,29.83,East,90,0.0,14.0,96,0.04,,,0.18,Wunderground v.1.15,2013-05-25 09:09:00,
2013-05-25 05:10:00,39.3,38.3,29.83,NNW,338,7.0,14.0,96,0.04,,,0.18,Wunderground v.1.15,2013-05-25 09:10:00,
2013-05-25 05:12:00,39.3,38.3,29.83,North,355,4.0,13.0,96,0.00,,,0.19,Wunderground v.1.15,2013-05-25 09:12:00,
2013-05-25 05:13:00,39.3,38.3,29.83,NNW,346,4.0,13.0,96,0.00,,,0.19,Wunderground v.1.15,2013-05-25 09:13:00,
2013-05-25 05:14:00,39.3,38.3,29.83,NW,321,5.0,13.0,96,0.00,,,0.19,Wunderground v.1.15,2013-05-25 09:14:00,
2013-05-25 05:15:00,39.3,38.3,29.83,NNE,26,11.0,13.0,96,0.00,,,0.19,Wunderground v.1.15,2013-05-25 09:15:00,
2013-05-25 05:18:00,39.2,38.2,29.82,NE,38,2.0,13.0,96,0.00,,,0.19,Wunderground v.1.15,2013-05-25 09:18:00,
2013-05-25 05:19:00,39.2,38.2,29.83,North,360,5.0,13.0,96,0.00,,,0.19,Wunderground v.1.15,2013-05-25 09:19:00,
2013-05-25 05:20:00,39.2,38.2,29.83,North,5,10.0,19.0,96,0.00,,,0.19,Wunderground v.1.15,2013-05-25 09:20:00,
2013-05-25 05:23:00,39.3,38.3,29.82,North,5,3.0,19.0,96,0.00,,,0.19,Wunderground v.1.15,2013-05-25 09:23:00,
2013-05-25 05:24:00,39.3,38.3,29.82,ESE,116,9.0,19.0,96,0.00,,,0.19,Wunderground v.1.15,2013-05-25 09:24:00,
2013-05-25 05:25:00,39.3,38.3,29.82,North,5,12.0,19.0,96,0.00,,,0.19,Wunderground v.1.15,2013-05-25 09:25:00,
2013-05-25 05:26:00,39.3,38.3,29.82,North,9,15.0,19.0,96,0.04,,,0.19,Wunderground v.1.15,2013-05-25 09:26:00,
2013-05-25 05:28:00,39.4,38.1,29.83,WNW,294,7.0,19.0,95,0.04,,,0.20,Wunderground v.1.15,2013-05-25 09:28:00,
2013-05-25 05:30:00,39.4,38.4,29.82,NNW,327,3.0,19.0,96,0.04,,,0.20,Wunderground v.1.15,2013-05-25 09:30:00,
2013-05-25 05:31:00,39.4,38.4,29.82,NNW,328,6.0,11.0,96,0.04,,,0.20,Wunderground v.1.15,2013-05-25 09:31:00,
2013-05-25 05:33:00,39.4,38.4,29.83,North,355,12.0,20.0,96,0.04,,,0.20,Wunderground v.1.15,2013-05-25 09:33:00,
2013-05-25 05:35:00,39.4,38.1,29.83,North,350,5.0,21.0,95,0.04,,,0.20,Wunderground v.1.15,2013-05-25 09:35:00,
2013-05-25 05:36:00,39.4,38.1,29.82,North,10,4.0,21.0,95,0.04,,,0.20,Wunderground v.1.15,2013-05-25 09:36:00,
2013-05-25 05:39:00,39.5,38.2,29.83,NW,313,10.0,21.0,95,0.04,,,0.20,Wunderground v.1.15,2013-05-25 09:39:00,
2013-05-25 05:40:00,39.5,38.2,29.83,North,349,3.0,7.0,95,0.04,,,0.20,Wunderground v.1.15,2013-05-25 09:40:00,
2013-05-25 05:41:00,39.5,38.2,29.83,NNW,348,4.0,7.0,95,0.04,,,0.20,Wunderground v.1.15,2013-05-25 09:41:00,
2013-05-25 05:45:00,39.5,38.2,29.83,NNE,14,5.0,14.0,95,0.00,,,0.20,Wunderground v.1.15,2013-05-25 09:45:00,
2013-05-25 05:46:00,39.5,38.2,29.83,NE,49,3.0,14.0,95,0.00,,,0.21,Wunderground v.1.15,2013-05-25 09:46:00,
2013-05-25 05:50:00,39.4,38.1,29.83,ENE,61,2.0,5.0,95,0.00,,,0.21,Wunderground v.1.15,2013-05-25 09:50:00,
2013-05-25 05:51:00,39.4,38.1,29.83,NNW,335,12.0,12.0,95,0.00,,,0.21,Wunderground v.1.15,2013-05-25 09:51:00,
2013-05-25 05:52:00,39.4,38.4,29.83,NNW,340,4.0,12.0,96,0.00,,,0.21,Wunderground v.1.15,2013-05-25 09:52:00,
2013-05-25 05:56:00,39.3,38.3,29.83,NNE,22,0.0,12.0,96,0.00,,,0.21,Wunderground v.1.15,2013-05-25 09:56:00,
2013-05-25 05:57:00,39.3,38.3,29.84,North,355,6.0,12.0,96,0.00,,,0.21,Wunderground v.1.15,2013-05-25 09:57:00,
2013-05-25 06:01:00,39.3,38.3,29.84,North,360,0.0,5.0,96,0.00,,,0.21,Wunderground v.1.15,2013-05-25 10:01:00,
2013-05-25 06:02:00,39.3,38.3,29.84,ESE,119,6.0,9.0,96,0.00,,,0.21,Wunderground v.1.15,2013-05-25 10:02:00,
2013-05-25 06:07:00,39.3,38.3,29.84,NW,319,5.0,13.0,96,0.00,,,0.21,Wunderground v.1.15,2013-05-25 10:07:00,
2013-05-25 06:08:00,39.3,38.3,29.84,NE,40,3.0,15.0,96,0.00,,,0.22,Wunderground v.1.15,2013-05-25 10:08:00,
2013-05-25 06:12:00,39.4,38.4,29.85,NNW,340,3.0,11.0,96,0.00,,,0.22,Wunderground v.1.15,2013-05-25 10:12:00,
2013-05-25 06:13:00,39.4,38.4,29.84,ESE,121,5.0,11.0,96,0.00,,,0.22,Wunderground v.1.15,2013-05-25 10:13:00,
2013-05-25 06:17:00,39.5,38.5,29.84,North,5,4.0,11.0,96,0.00,,,0.22,Wunderground v.1.15,2013-05-25 10:17:00,
2013-05-25 06:18:00,39.5,38.5,29.85,NE,56,10.0,11.0,96,0.00,,,0.22,Wunderground v.1.15,2013-05-25 10:18:00,
2013-05-25 06:19:00,39.5,38.5,29.84,NNW,330,5.0,11.0,96,0.00,,,0.22,Wunderground v.1.15,2013-05-25 10:19:00,
2013-05-25 06:22:00,39.5,38.5,29.84,NW,312,5.0,14.0,96,0.00,,,0.22,Wunderground v.1.15,2013-05-25 10:22:00,
2013-05-25 06:23:00,39.5,38.5,29.84,North,5,10.0,14.0,96,0.00,,,0.22,Wunderground v.1.15,2013-05-25 10:23:00,
2013-05-25 06:24:00,39.5,38.2,29.85,NNE,28,2.0,14.0,95,0.00,,,0.22,Wunderground v.1.15,2013-05-25 10:24:00,
2013-05-25 06:28:00,39.5,38.5,29.84,WNW,302,6.0,18.0,96,0.00,,,0.22,Wunderground v.1.15,2013-05-25 10:28:00,
2013-05-25 06:29:00,39.5,38.5,29.85,West,259,0.0,18.0,96,0.00,,,0.22,Wunderground v.1.15,2013-05-25 10:29:00,
2013-05-25 06:33:00,39.5,38.5,29.84,NE,53,4.0,12.0,96,0.00,,,0.22,Wunderground v.1.15,2013-05-25 10:33:00,
2013-05-25 06:34:00,39.5,38.5,29.84,NNW,329,0.0,12.0,96,0.00,,,0.23,Wunderground v.1.15,2013-05-25 10:34:00,
2013-05-25 06:35:00,39.5,38.5,29.85,ENE,63,2.0,12.0,96,0.00,,,0.23,Wunderground v.1.15,2013-05-25 10:35:00,
2013-05-25 06:38:00,39.5,38.5,29.84,West,267,5.0,13.0,96,0.00,,,0.23,Wunderground v.1.15,2013-05-25 10:38:00,
2013-05-25 06:40:00,39.5,38.5,29.84,SSW,203,3.0,13.0,96,0.00,,,0.23,Wunderground v.1.15,2013-05-25 10:40:00,
2013-05-25 06:43:00,39.5,38.5,29.85,NNE,12,2.0,15.0,96,0.00,,,0.23,Wunderground v.1.15,2013-05-25 10:43:00,
2013-05-25 06:44:00,39.5,38.5,29.84,NW,317,0.0,15.0,96,0.00,,,0.23,Wunderground v.1.15,2013-05-25 10:44:00,
2013-05-25 06:45:00,39.5,38.5,29.84,NNE,19,8.0,15.0,96,0.00,,,0.23,Wunderground v.1.15,2013-05-25 10:45:00,
2013-05-25 06:46:00,39.5,38.5,29.84,WSW,254,7.0,17.0,96,0.00,,,0.23,Wunderground v.1.15,2013-05-25 10:46:00,
2013-05-25 06:48:00,39.5,38.5,29.84,ENE,58,6.0,17.0,96,0.00,,,0.23,Wunderground v.1.15,2013-05-25 10:48:00,
2013-05-25 06:49:00,39.5,38.5,29.85,NNE,31,6.0,17.0,96,0.00,,,0.23,Wunderground v.1.15,2013-05-25 10:49:00,
2013-05-25 06:50:00,39.5,38.5,29.84,NNW,338,8.0,8.0,96,0.00,,,0.23,Wunderground v.1.15,2013-05-25 10:50:00,
2013-05-25 06:51:00,39.5,38.5,29.85,West,262,5.0,13.0,96,0.00,,,0.23,Wunderground v.1.15,2013-05-25 10:51:00,
2013-05-25 06:53:00,39.5,38.5,29.85,North,360,0.0,13.0,96,0.00,,,0.23,Wunderground v.1.15,2013-05-25 10:53:00,
2013-05-25 06:54:00,39.5,38.5,29.85,SSE,154,1.0,13.0,96,0.00,,,0.23,Wunderground v.1.15,2013-05-25 10:54:00,
2013-05-25 06:55:00,39.6,38.6,29.85,NW,321,4.0,13.0,96,0.00,,,0.23,Wunderground v.1.15,2013-05-25 10:55:00,
2013-05-25 06:56:00,39.6,38.6,29.85,NE,47,11.0,13.0,96,0.00,,,0.23,Wunderground v.1.15,2013-05-25 10:56:00,
2013-05-25 06:58:00,39.6,38.6,29.85,NW,325,9.0,13.0,96,0.00,,,0.23,Wunderground v.1.15,2013-05-25 10:58:00,
2013-05-25 06:59:00,39.5,38.5,29.85,North,349,7.0,13.0,96,0.00,,,0.23,Wunderground v.1.15,2013-05-25 10:59:00,
2013-05-25 07:00:00,39.5,38.5,29.85,West,273,2.0,13.0,96,0.00,,,0.23,Wunderground v.1.15,2013-05-25 11:00:00,
2013-05-25 07:02:00,39.5,38.5,29.85,NW,306,4.0,12.0,96,0.00,,,0.24,Wunderground v.1.15,2013-05-25 11:02:00,
2013-05-25 07:04:00,39.5,38.5,29.85,SW,222,1.0,12.0,96,0.00,,,0.24,Wunderground v.1.15,2013-05-25 11:04:00,
2013-05-25 07:05:00,39.6,38.6,29.84,WNW,290,0.0,12.0,96,0.00,,,0.24,Wunderground v.1.15,2013-05-25 11:05:00,
2013-05-25 07:07:00,39.5,38.5,29.85,SSW,200,0.0,12.0,96,0.00,,,0.24,Wunderground v.1.15,2013-05-25 11:07:00,
2013-05-25 07:09:00,39.5,38.5,29.84,NW,319,0.0,12.0,96,0.00,,,0.24,Wunderground v.1.15,2013-05-25 11:09:00,
2013-05-25 07:10:00,39.5,38.5,29.85,WSW,254,5.0,12.0,96,0.00,,,0.24,Wunderground v.1.15,2013-05-25 11:10:00,
2013-05-25 07:11:00,39.4,38.4,29.84,NW,313,5.0,5.0,96,0.00,,,0.24,Wunderground v.1.15,2013-05-25 11:11:00,
2013-05-25 07:12:00,39.4,38.4,29.85,North,5,7.0,10.0,96,0.00,,,0.24,Wunderground v.1.15,2013-05-25 11:12:00,
2013-05-25 07:14:00,39.4,38.4,29.85,NW,318,14.0,14.0,96,0.00,,,0.24,Wunderground v.1.15,2013-05-25 11:14:00,
2013-05-25 07:15:00,39.3,38.3,29.85,NW,310,8.0,14.0,96,0.00,,,0.24,Wunderground v.1.15,2013-05-25 11:15:00,
2013-05-25 07:16:00,39.3,38.3,29.85,North,360,9.0,14.0,96,0.00,,,0.24,Wunderground v.1.15,2013-05-25 11:16:00,
2013-05-25 07:17:00,39.3,38.3,29.85,NW,323,3.0,14.0,96,0.00,,,0.24,Wunderground v.1.15,2013-05-25 11:17:00,
2013-05-25 07:19:00,39.3,38.5,29.85,NW,306,8.0,14.0,97,0.00,,,0.24,Wunderground v.1.15,2013-05-25 11:19:00,
2013-05-25 07:20:00,39.3,38.3,29.85,West,265,4.0,5.0,96,0.00,,,0.24,Wunderground v.1.15,2013-05-25 11:20:00,
2013-05-25 07:21:00,39.2,38.4,29.85,NE,42,3.0,12.0,97,0.00,,,0.24,Wunderground v.1.15,2013-05-25 11:21:00,
2013-05-25 07:22:00,39.2,38.2,29.85,NNW,337,11.0,14.0,96,0.00,,,0.24,Wunderground v.1.15,2013-05-25 11:22:00,
2013-05-25 07:25:00,39.2,38.4,29.85,SW,233,6.0,14.0,97,0.00,,,0.24,Wunderground v.1.15,2013-05-25 11:25:00,
2013-05-25 07:26:00,39.1,38.3,29.85,NNW,343,5.0,14.0,97,0.00,,,0.24,Wunderground v.1.15,2013-05-25 11:26:00,
2013-05-25 07:27:00,39.1,38.3,29.85,SW,225,4.0,14.0,97,0.00,,,0.24,Wunderground v.1.15,2013-05-25 11:27:00,
2013-05-25 07:30:00,39.1,38.3,29.85,NW,322,4.0,4.0,97,0.00,,,0.24,Wunderground v.1.15,2013-05-25 11:30:00,
2013-05-25 07:31:00,39.1,38.3,29.85,NW,313,0.0,4.0,97,0.00,,,0.24,Wunderground v.1.15,2013-05-25 11:31:00,
2013-05-25 07:32:00,39.1,38.3,29.84,NW,313,4.0,4.0,97,0.00,,,0.24,Wunderground v.1.15,2013-05-25 11:32:00,
2013-05-25 07:33:00,39.1,38.3,29.85,West,264,10.0,10.0,97,0.00,,,0.24,Wunderground v.1.15,2013-05-25 11:33:00,
2013-05-25 07:35:00,39.1,38.3,29.84,NNW,327,11.0,12.0,97,0.00,,,0.24,Wunderground v.1.15,2013-05-25 11:35:00,
2013-05-25 07:36:00,39.1,38.3,29.84,NNW,327,11.0,12.0,97,0.00,,,0.24,Wunderground v.1.15,2013-05-25 11:36:00,
2013-05-25 07:37:00,39.0,38.2,29.84,WSW,252,0.0,12.0,97,0.00,,,0.24,Wunderground v.1.15,2013-05-25 11:37:00,
2013-05-25 07:38:00,38.9,38.1,29.84,NW,316,4.0,12.0,97,0.00,,,0.25,Wunderground v.1.15,2013-05-25 11:38:00,
2013-05-25 07:41:00,38.9,38.1,29.84,North,355,8.0,12.0,97,0.00,,,0.25,Wunderground v.1.15,2013-05-25 11:41:00,
2013-05-25 07:42:00,38.8,38.0,29.85,NNW,335,7.0,12.0,97,0.00,,,0.25,Wunderground v.1.15,2013-05-25 11:42:00,
2013-05-25 07:43:00,38.7,37.9,29.84,NNW,338,13.0,15.0,97,0.00,,,0.25,Wunderground v.1.15,2013-05-25 11:43:00,
2013-05-25 07:46:00,38.6,37.8,29.84,WNW,298,4.0,15.0,97,0.00,,,0.25,Wunderground v.1.15,2013-05-25 11:46:00,
2013-05-25 07:47:00,38.6,37.8,29.84,WNW,299,0.0,15.0,97,0.00,,,0.25,Wunderground v.1.15,2013-05-25 11:47:00,
2013-05-25 07:49:00,38.5,37.7,29.84,NW,309,1.0,15.0,97,0.00,,,0.25,Wunderground v.1.15,2013-05-25 11:49:00,
2013-05-25 07:51:00,38.5,37.7,29.84,WNW,303,5.0,7.0,97,0.00,,,0.25,Wunderground v.1.15,2013-05-25 11:51:00,
2013-05-25 07:52:00,38.4,37.6,29.85,North,360,1.0,7.0,97,0.00,,,0.25,Wunderground v.1.15,2013-05-25 11:52:00,
2013-05-25 07:53:00,38.4,37.6,29.84,SW,221,0.0,7.0,97,0.00,,,0.25,Wunderground v.1.15,2013-05-25 11:53:00,
2013-05-25 07:54:00,38.4,37.6,29.84,NNW,348,7.0,7.0,97,0.00,,,0.25,Wunderground v.1.15,2013-05-25 11:54:00,
2013-05-25 07:56:00,38.4,37.6,29.84,ENE,77,0.0,7.0,97,0.00,,,0.25,Wunderground v.1.15,2013-05-25 11:56:00,
2013-05-25 07:57:00,38.4,37.6,29.84,NW,321,3.0,7.0,97,0.00,,,0.25,Wunderground v.1.15,2013-05-25 11:57:00,
2013-05-25 07:58:00,38.4,37.6,29.84,NW,325,2.0,7.0,97,0.00,,,0.25,Wunderground v.1.15,2013-05-25 11:58:00,
2013-05-25 08:00:00,38.4,37.9,29.84,NNE,29,7.0,8.0,98,0.00,,,0.25,Wunderground v.1.15,2013-05-25 12:00:00,
2013-05-25 08:01:00,38.3,37.8,29.84,NNE,27,7.0,9.0,98,0.00,,,0.25,Wunderground v.1.15,2013-05-25 12:01:00,
2013-05-25 08:02:00,38.3,37.8,29.84,NNW,336,3.0,11.0,98,0.00,,,0.25,Wunderground v.1.15,2013-05-25 12:02:00,
2013-05-25 08:03:00,38.3,37.8,29.84,South,182,0.0,11.0,98,0.00,,,0.25,Wunderground v.1.15,2013-05-25 12:03:00,
2013-05-25 08:05:00,38.3,37.8,29.84,WSW,242,1.0,11.0,98,0.00,,,0.25,Wunderground v.1.15,2013-05-25 12:05:00,
2013-05-25 08:06:00,38.3,37.8,29.84,NNW,329,11.0,14.0,98,0.00,,,0.25,Wunderground v.1.15,2013-05-25 12:06:00,
2013-05-25 08:07:00,38.2,37.7,29.84,North,355,4.0,14.0,98,0.00,,,0.25,Wunderground v.1.15,2013-05-25 12:07:00,
2013-05-25 08:08:00,38.2,37.7,29.84,NNW,339,4.0,14.0,98,0.00,,,0.25,Wunderground v.1.15,2013-05-25 12:08:00,
2013-05-25 08:10:00,38.2,37.7,29.84,West,259,4.0,14.0,98,0.00,,,0.25,Wunderground v.1.15,2013-05-25 12:10:00,
2013-05-25 08:12:00,38.2,37.7,29.84,ENE,77,2.0,8.0,98,0.00,,,0.25,Wunderground v.1.15,2013-05-25 12:12:00,
2013-05-25 08:14:00,38.2,37.7,29.84,North,355,0.0,10.0,98,0.00,,,0.26,Wunderground v.1.15,2013-05-25 12:14:00,
2013-05-25 08:15:00,38.2,37.7,29.85,NNE,20,8.0,18.0,98,0.00,,,0.26,Wunderground v.1.15,2013-05-25 12:15:00,
2013-05-25 08:17:00,38.1,37.6,29.84,NNW,329,5.0,18.0,98,0.00,,,0.26,Wunderground v.1.15,2013-05-25 12:17:00,
2013-05-25 08:19:00,38.0,37.5,29.84,NW,315,2.0,18.0,98,0.00,,,0.26,Wunderground v.1.15,2013-05-25 12:19:00,
2013-05-25 08:20:00,38.0,37.5,29.85,WSW,254,4.0,5.0,98,0.00,,,0.26,Wunderground v.1.15,2013-05-25 12:20:00,
2013-05-25 08:22:00,38.0,37.5,29.84,NNW,327,6.0,12.0,98,0.00,,,0.26,Wunderground v.1.15,2013-05-25 12:22:00,
2013-05-25 08:23:00,38.0,37.5,29.84,NW,313,3.0,12.0,98,0.00,,,0.26,Wunderground v.1.15,2013-05-25 12:23:00,
2013-05-25 08:24:00,38.0,37.5,29.84,WNW,285,3.0,12.0,98,0.00,,,0.26,Wunderground v.1.15,2013-05-25 12:24:00,
2013-05-25 08:25:00,38.0,37.5,29.84,NW,310,7.0,12.0,98,0.00,,,0.26,Wunderground v.1.15,2013-05-25 12:25:00,
2013-05-25 08:28:00,38.0,37.5,29.84,NE,42,4.0,12.0,98,0.00,,,0.26,Wunderground v.1.15,2013-05-25 12:28:00,
2013-05-25 08:29:00,38.1,37.6,29.84,WSW,255,4.0,12.0,98,0.00,,,0.26,Wunderground v.1.15,2013-05-25 12:29:00,
2013-05-25 08:30:00,38.1,37.6,29.85,South,184,1.0,9.0,98,0.00,,,0.26,Wunderground v.1.15,2013-05-25 12:30:00,
2013-05-25 08:33:00,38.1,37.6,29.85,West,265,0.0,9.0,98,0.00,,,0.26,Wunderground v.1.15,2013-05-25 12:33:00,
2013-05-25 08:34:00,38.2,37.7,29.84,WNW,288,4.0,9.0,98,0.00,,,0.26,Wunderground v.1.15,2013-05-25 12:34:00,
2013-05-25 08:36:00,38.2,37.7,29.85,WNW,302,0.0,9.0,98,0.00,,,0.26,Wunderground v.1.15,2013-05-25 12:36:00,
2013-05-25 08:38:00,38.3,37.8,29.85,NNE,26,9.0,14.0,98,0.00,,,0.26,Wunderground v.1.15,2013-05-25 12:38:00,
2013-05-25 08:39:00,38.2,37.7,29.85,NNW,338,4.0,14.0,98,0.00,,,0.26,Wunderground v.1.15,2013-05-25 12:39:00,
2013-05-25 08:40:00,38.2,37.7,29.85,East,83,3.0,14.0,98,0.00,,,0.26,Wunderground v.1.15,2013-05-25 12:40:00,
2013-05-25 08:41:00,38.2,37.7,29.85,South,175,2.0,12.0,98,0.00,,,0.26,Wunderground v.1.15,2013-05-25 12:41:00,
2013-05-25 08:43:00,38.2,37.7,29.85,WNW,294,4.0,12.0,98,0.00,,,0.26,Wunderground v.1.15,2013-05-25 12:43:00,
2013-05-25 08:44:00,38.2,37.7,29.85,ESE,110,2.0,12.0,98,0.00,,,0.26,Wunderground v.1.15,2013-05-25 12:44:00,
2013-05-25 08:45:00,38.1,37.6,29.85,West,281,0.0,12.0,98,0.00,,,0.26,Wunderground v.1.15,2013-05-25 12:45:00,
2013-05-25 08:46:00,38.2,37.7,29.85,NNW,342,0.0,12.0,98,0.00,,,0.26,Wunderground v.1.15,2013-05-25 12:46:00,
2013-05-25 08:48:00,38.2,37.7,29.85,SW,214,3.0,12.0,98,0.00,,,0.26,Wunderground v.1.15,2013-05-25 12:48:00,
2013-05-25 08:49:00,38.2,37.7,29.85,NNW,336,0.0,12.0,98,0.00,,,0.26,Wunderground v.1.15,2013-05-25 12:49:00,
2013-05-25 08:51:00,38.2,37.7,29.85,NW,321,5.0,6.0,98,0.00,,,0.26,Wunderground v.1.15,2013-05-25 12:51:00,
2013-05-25 08:53:00,38.2,37.7,29.85,North,355,5.0,6.0,98,0.00,,,0.26,Wunderground v.1.15,2013-05-25 12:53:00,
2013-05-25 08:54:00,38.2,37.7,29.85,NW,316,3.0,6.0,98,0.00,,,0.27,Wunderground v.1.15,2013-05-25 12:54:00,
2013-05-25 08:56:00,38.2,37.7,29.85,West,275,2.0,9.0,98,0.00,,,0.27,Wunderground v.1.15,2013-05-25 12:56:00,
2013-05-25 08:58:00,38.2,37.7,29.85,NE,51,2.0,10.0,98,0.00,,,0.27,Wunderground v.1.15,2013-05-25 12:58:00,
2013-05-25 08:59:00,38.2,37.7,29.85,North,350,7.0,10.0,98,0.00,,,0.27,Wunderground v.1.15,2013-05-25 12:59:00,
2013-05-25 09:00:00,38.2,37.7,29.85,NNW,342,5.0,7.0,98,0.00,,,0.27,Wunderground v.1.15,2013-05-25 13:00:00,
2013-05-25 09:01:00,38.2,37.7,29.85,West,273,4.0,7.0,98,0.00,,,0.27,Wunderground v.1.15,2013-05-25 13:01:00,
2013-05-25 09:03:00,38.2,37.7,29.86,NNW,344,1.0,17.0,98,0.00,,,0.27,Wunderground v.1.15,2013-05-25 13:03:00,
2013-05-25 09:04:00,38.2,37.7,29.85,WNW,282,1.0,17.0,98,0.00,,,0.27,Wunderground v.1.15,2013-05-25 13:04:00,
2013-05-25 09:06:00,38.2,37.7,29.85,NE,44,4.0,17.0,98,0.00,,,0.27,Wunderground v.1.15,2013-05-25 13:06:00,
2013-05-25 09:07:00,38.2,37.7,29.85,SW,217,9.0,17.0,98,0.00,,,0.27,Wunderground v.1.15,2013-05-25 13:07:00,
2013-05-25 09:08:00,38.2,37.7,29.85,North,5,8.0,17.0,98,0.00,,,0.27,Wunderground v.1.15,2013-05-25 13:08:00,
2013-05-25 09:10:00,38.2,37.7,29.85,WNW,290,0.0,17.0,98,0.00,,,0.27,Wunderground v.1.15,2013-05-25 13:10:00,
2013-05-25 09:11:00,38.2,37.7,29.85,NNW,340,8.0,8.0,98,0.00,,,0.27,Wunderground v.1.15,2013-05-25 13:11:00,
2013-05-25 09:12:00,38.2,37.7,29.85,North,355,0.0,9.0,98,0.00,,,0.27,Wunderground v.1.15,2013-05-25 13:12:00,
2013-05-25 09:13:00,38.2,37.7,29.85,North,9,2.0,9.0,98,0.00,,,0.27,Wunderground v.1.15,2013-05-25 13:13:00,
2013-05-25 09:15:00,38.2,37.7,29.85,NNE,16,0.0,9.0,98,0.00,,,0.27,Wunderground v.1.15,2013-05-25 13:15:00,
2013-05-25 09:16:00,38.2,37.7,29.85,West,274,8.0,9.0,98,0.00,,,0.27,Wunderground v.1.15,2013-05-25 13:16:00,
2013-05-25 09:17:00,38.2,37.7,29.85,WNW,296,7.0,9.0,98,0.00,,,0.27,Wunderground v.1.15,2013-05-25 13:17:00,
2013-05-25 09:18:00,38.2,37.7,29.85,WNW,298,8.0,13.0,98,0.00,,,0.27,Wunderground v.1.15,2013-05-25 13:18:00,
2013-05-25 09:20:00,38.2,37.7,29.84,NW,313,10.0,10.0,98,0.00,,,0.27,Wunderground v.1.15,2013-05-25 13:20:00,
2013-05-25 09:21:00,38.2,37.7,29.84,NNW,331,5.0,10.0,98,0.00,,,0.27,Wunderground v.1.15,2013-05-25 13:21:00,
2013-05-25 09:22:00,38.2,37.7,29.85,West,281,1.0,11.0,98,0.00,,,0.28,Wunderground v.1.15,2013-05-25 13:22:00,
2013-05-25 09:24:00,38.2,37.7,29.85,ENE,57,10.0,13.0,98,0.00,,,0.28,Wunderground v.1.15,2013-05-25 13:24:00,
2013-05-25 09:25:00,38.2,37.7,29.85,NNE,26,2.0,13.0,98,0.00,,,0.28,Wunderground v.1.15,2013-05-25 13:25:00,
2013-05-25 09:26:00,38.2,37.7,29.85,NE,53,5.0,13.0,98,0.00,,,0.28,Wunderground v.1.15,2013-05-25 13:26:00,
2013-05-25 09:27:00,38.2,37.7,29.85,NNW,343,3.0,13.0,98,0.00,,,0.28,Wunderground v.1.15,2013-05-25 13:27:00,
2013-05-25 09:28:00,38.2,37.7,29.85,NNW,340,3.0,13.0,98,0.00,,,0.28,Wunderground v.1.15,2013-05-25 13:28:00,
2013-05-25 09:29:00,38.2,37.7,29.84,West,263,1.0,13.0,98,0.00,,,0.28,Wunderground v.1.15,2013-05-25 13:29:00,
2013-05-25 09:30:00,38.3,37.8,29.85,North,351,7.0,7.0,98,0.00,,,0.28,Wunderground v.1.15,2013-05-25 13:30:00,
2013-05-25 09:32:00,38.2,37.7,29.84,NW,322,3.0,10.0,98,0.00,,,0.28,Wunderground v.1.15,2013-05-25 13:32:00,
2013-05-25 09:33:00,38.3,37.8,29.85,North,350,3.0,10.0,98,0.00,,,0.28,Wunderground v.1.15,2013-05-25 13:33:00,
2013-05-25 09:34:00,38.3,37.8,29.84,NNE,17,11.0,11.0,98,0.00,,,0.28,Wunderground v.1.15,2013-05-25 13:34:00,
2013-05-25 09:36:00,38.3,37.8,29.84,NNE,19,5.0,19.0,98,0.00,,,0.28,Wunderground v.1.15,2013-05-25 13:36:00,
2013-05-25 09:38:00,38.3,37.8,29.84,West,280,11.0,19.0,98,0.00,,,0.28,Wunderground v.1.15,2013-05-25 13:38:00,
2013-05-25 09:40:00,38.4,37.9,29.84,NNW,346,6.0,19.0,98,0.00,,,0.28,Wunderground v.1.15,2013-05-25 13:40:00,
2013-05-25 09:41:00,38.4,37.9,29.84,West,279,5.0,15.0,98,0.00,,,0.28,Wunderground v.1.15,2013-05-25 13:41:00,
2013-05-25 09:43:00,38.4,37.9,29.85,North,5,5.0,15.0,98,0.00,,,0.28,Wunderground v.1.15,2013-05-25 13:43:00,
2013-05-25 09:45:00,38.4,37.9,29.84,NNW,329,2.0,15.0,98,0.00,,,0.28,Wunderground v.1.15,2013-05-25 13:45:00,
2013-05-25 09:46:00,38.4,37.9,29.85,NW,314,16.0,16.0,98,0.00,,,0.28,Wunderground v.1.15,2013-05-25 13:46:00,
2013-05-25 09:48:00,38.4,37.9,29.84,ENE,59,1.0,16.0,98,0.00,,,0.28,Wunderground v.1.15,2013-05-25 13:48:00,
2013-05-25 09:49:00,38.4,37.9,29.84,North,350,1.0,16.0,98,0.00,,,0.28,Wunderground v.1.15,2013-05-25 13:49:00,
2013-05-25 09:50:00,38.4,37.9,29.84,NW,306,6.0,6.0,98,0.00,,,0.29,Wunderground v.1.15,2013-05-25 13:50:00,
2013-05-25 09:52:00,38.5,38.0,29.84,North,360,0.0,6.0,98,0.00,,,0.29,Wunderground v.1.15,2013-05-25 13:52:00,
2013-05-25 09:53:00,38.6,38.1,29.85,North,360,8.0,13.0,98,0.00,,,0.29,Wunderground v.1.15,2013-05-25 13:53:00,
2013-05-25 09:54:00,38.6,38.1,29.84,NNW,344,2.0,13.0,98,0.00,,,0.29,Wunderground v.1.15,2013-05-25 13:54:00,
2013-05-25 09:55:00,38.5,38.0,29.85,East,87,2.0,13.0,98,0.00,,,0.29,Wunderground v.1.15,2013-05-25 13:55:00,
2013-05-25 09:57:00,38.5,38.0,29.84,NNW,331,5.0,13.0,98,0.00,,,0.29,Wunderground v.1.15,2013-05-25 13:57:00,
2013-05-25 09:58:00,38.5,38.0,29.84,North,9,5.0,13.0,98,0.00,,,0.29,Wunderground v.1.15,2013-05-25 13:58:00,
2013-05-25 09:59:00,38.4,37.9,29.84,NW,308,3.0,13.0,98,0.00,,,0.29,Wunderground v.1.15,2013-05-25 13:59:00,
2013-05-25 10:01:00,38.5,38.0,29.84,NNW,342,0.0,5.0,98,0.00,,,0.29,Wunderground v.1.15,2013-05-25 14:01:00,
2013-05-25 10:02:00,38.5,38.0,29.85,NNW,337,8.0,11.0,98,0.00,,,0.29,Wunderground v.1.15,2013-05-25 14:02:00,
2013-05-25 10:04:00,38.5,38.0,29.84,North,355,1.0,11.0,98,0.00,,,0.29,Wunderground v.1.15,2013-05-25 14:04:00,
2013-05-25 10:06:00,38.5,38.0,29.85,North,5,0.0,17.0,98,0.00,,,0.29,Wunderground v.1.15,2013-05-25 14:06:00,
2013-05-25 10:07:00,38.5,38.0,29.85,NE,44,1.0,17.0,98,0.00,,,0.29,Wunderground v.1.15,2013-05-25 14:07:00,
2013-05-25 10:09:00,38.5,38.0,29.85,NE,40,5.0,17.0,98,0.00,,,0.29,Wunderground v.1.15,2013-05-25 14:09:00,
2013-05-25 10:10:00,38.5,38.0,29.85,SW,219,5.0,17.0,98,0.00,,,0.29,Wunderground v.1.15,2013-05-25 14:10:00,
2013-05-25 10:11:00,38.5,38.0,29.85,NNE,15,9.0,10.0,98,0.00,,,0.29,Wunderground v.1.15,2013-05-25 14:11:00,
2013-05-25 10:12:00,38.5,37.7,29.85,NNW,345,9.0,13.0,97,0.00,,,0.30,Wunderground v.1.15,2013-05-25 14:12:00,
2013-05-25 10:14:00,38.4,37.6,29.84,ENE,60,7.0,13.0,97,0.00,,,0.30,Wunderground v.1.15,2013-05-25 14:14:00,
2013-05-25 10:15:00,38.4,37.6,29.85,SSE,164,0.0,13.0,97,0.00,,,0.30,Wunderground v.1.15,2013-05-25 14:15:00,
2013-05-25 10:16:00,38.5,38.0,29.85,NW,324,1.0,13.0,98,0.00,,,0.30,Wunderground v.1.15,2013-05-25 14:16:00,
2013-05-25 10:17:00,38.5,38.0,29.85,WNW,299,3.0,13.0,98,0.00,,,0.30,Wunderground v.1.15,2013-05-25 14:17:00,
2013-05-25 10:20:00,38.4,37.6,29.85,ENE,62,6.0,14.0,97,0.00,,,0.30,Wunderground v.1.15,2013-05-25 14:20:00,
2013-05-25 10:22:00,38.4,37.6,29.85,North,351,7.0,10.0,97,0.00,,,0.30,Wunderground v.1.15,2013-05-25 14:22:00,
2013-05-25 10:23:00,38.4,37.6,29.84,WNW,294,5.0,10.0,97,0.00,,,0.30,Wunderground v.1.15,2013-05-25 14:23:00,
2013-05-25 10:25:00,38.3,37.5,29.85,NW,306,5.0,10.0,97,0.00,,,0.30,Wunderground v.1.15,2013-05-25 14:25:00,
2013-05-25 10:28:00,38.3,37.5,29.84,ESE,119,5.0,20.0,97,0.00,,,0.30,Wunderground v.1.15,2013-05-25 14:28:00,
2013-05-25 10:30:00,38.3,37.5,29.84,NNW,339,6.0,12.0,97,0.00,,,0.30,Wunderground v.1.15,2013-05-25 14:30:00,
2013-05-25 10:31:00,38.3,37.5,29.84,West,275,2.0,12.0,97,0.00,,,0.30,Wunderground v.1.15,2013-05-25 14:31:00,
2013-05-25 10:33:00,38.2,37.4,29.85,North,9,7.0,12.0,97,0.00,,,0.30,Wunderground v.1.15,2013-05-25 14:33:00,
2013-05-25 10:35:00,38.2,37.4,29.85,NNW,336,6.0,12.0,97,0.00,,,0.31,Wunderground v.1.15,2013-05-25 14:35:00,
2013-05-25 10:36:00,38.2,37.4,29.84,North,355,17.0,19.0,97,0.00,,,0.31,Wunderground v.1.15,2013-05-25 14:36:00,
2013-05-25 10:38:00,38.1,37.3,29.84,West,275,2.0,19.0,97,0.00,,,0.31,Wunderground v.1.15,2013-05-25 14:38:00,
2013-05-25 10:40:00,38.1,37.3,29.84,NNW,333,9.0,9.0,97,0.00,,,0.31,Wunderground v.1.15,2013-05-25 14:40:00,
2013-05-25 10:41:00,38.0,37.2,29.84,North,9,8.0,15.0,97,0.00,,,0.31,Wunderground v.1.15,2013-05-25 14:41:00,
2013-05-25 10:42:00,38.0,37.2,29.84,NNE,13,2.0,15.0,97,0.00,,,0.31,Wunderground v.1.15,2013-05-25 14:42:00,
2013-05-25 10:44:00,38.0,37.2,29.84,SE,127,2.0,15.0,97,0.00,,,0.31,Wunderground v.1.15,2013-05-25 14:44:00,
2013-05-25 10:46:00,38.0,37.2,29.84,NE,44,8.0,15.0,97,0.00,,,0.31,Wunderground v.1.15,2013-05-25 14:46:00,
2013-05-25 10:47:00,38.0,37.2,29.84,NNE,23,6.0,15.0,97,0.00,,,0.31,Wunderground v.1.15,2013-05-25 14:47:00,
2013-05-25 10:49:00,38.0,37.2,29.84,WNW,302,9.0,15.0,97,0.00,,,0.31,Wunderground v.1.15,2013-05-25 14:49:00,
2013-05-25 10:51:00,38.1,37.3,29.84,West,267,7.0,15.0,97,0.00,,,0.31,Wunderground v.1.15,2013-05-25 14:51:00,
2013-05-25 10:52:00,38.1,37.3,29.83,ESE,117,2.0,15.0,97,0.00,,,0.32,Wunderground v.1.15,2013-05-25 14:52:00,
2013-05-25 10:54:00,38.2,37.4,29.83,NNE,15,7.0,15.0,97,0.00,,,0.32,Wunderground v.1.15,2013-05-25 14:54:00,
2013-05-25 10:57:00,38.3,37.5,29.84,NW,316,2.0,15.0,97,0.00,,,0.32,Wunderground v.1.15,2013-05-25 14:57:00,
2013-05-25 10:59:00,38.5,37.7,29.84,ESE,103,0.0,15.0,97,0.00,,,0.32,Wunderground v.1.15,2013-05-25 14:59:00,
2013-05-25 11:00:00,38.5,37.7,29.84,ESE,103,0.0,15.0,97,0.00,,,0.32,Wunderground v.1.15,2013-05-25 15:00:00,
2013-05-25 11:02:00,38.7,38.2,29.84,NW,317,7.0,9.0,98,0.00,,,0.32,Wunderground v.1.15,2013-05-25 15:02:00,
2013-05-25 11:05:00,38.8,38.3,29.84,NNW,342,10.0,13.0,98,0.00,,,0.32,Wunderground v.1.15,2013-05-25 15:05:00,
2013-05-25 11:07:00,38.8,38.0,29.84,North,5,4.0,15.0,97,0.00,,,0.32,Wunderground v.1.15,2013-05-25 15:07:00,
2013-05-25 11:10:00,38.8,38.0,29.84,North,360,3.0,6.0,97,0.00,,,0.32,Wunderground v.1.15,2013-05-25 15:10:00,
2013-05-25 11:12:00,38.9,38.1,29.84,WSW,241,12.0,12.0,97,0.00,,,0.33,Wunderground v.1.15,2013-05-25 15:12:00,
2013-05-25 11:13:00,39.0,38.2,29.83,WNW,294,2.0,12.0,97,0.00,,,0.33,Wunderground v.1.15,2013-05-25 15:13:00,
2013-05-25 11:15:00,39.0,38.2,29.83,NE,53,6.0,12.0,97,0.00,,,0.33,Wunderground v.1.15,2013-05-25 15:15:00,
2013-05-25 11:17:00,39.0,38.2,29.83,West,280,3.0,12.0,97,0.00,,,0.33,Wunderground v.1.15,2013-05-25 15:17:00,
2013-05-25 11:18:00,39.1,38.3,29.83,NNE,13,9.0,12.0,97,0.00,,,0.33,Wunderground v.1.15,2013-05-25 15:18:00,
2013-05-25 11:20:00,39.0,38.2,29.83,NNW,345,4.0,5.0,97,0.00,,,0.33,Wunderground v.1.15,2013-05-25 15:20:00,
2013-05-25 11:22:00,39.1,38.3,29.83,SW,216,5.0,17.0,97,0.00,,,0.33,Wunderground v.1.15,2013-05-25 15:22:00,
2013-05-25 11:23:00,39.1,38.3,29.83,NNW,342,4.0,17.0,97,0.00,,,0.33,Wunderground v.1.15,2013-05-25 15:23:00,
2013-05-25 11:24:00,39.2,38.4,29.83,North,5,10.0,17.0,97,0.00,,,0.33,Wunderground v.1.15,2013-05-25 15:24:00,
2013-05-25 11:26:00,39.2,38.4,29.83,NNW,341,8.0,17.0,97,0.00,,,0.33,Wunderground v.1.15,2013-05-25 15:26:00,
2013-05-25 11:28:00,39.1,38.3,29.84,ENE,61,8.0,20.0,97,0.04,,,0.34,Wunderground v.1.15,2013-05-25 15:28:00,
2013-05-25 11:29:00,39.2,38.4,29.83,NNE,19,4.0,20.0,97,0.04,,,0.34,Wunderground v.1.15,2013-05-25 15:29:00,
2013-05-25 11:31:00,39.2,38.4,29.83,NNW,348,3.0,10.0,97,0.04,,,0.34,Wunderground v.1.15,2013-05-25 15:31:00,
2013-05-25 11:33:00,39.3,38.5,29.84,NNW,332,3.0,10.0,97,0.04,,,0.34,Wunderground v.1.15,2013-05-25 15:33:00,
2013-05-25 11:34:00,39.3,38.5,29.83,NNE,25,2.0,10.0,97,0.04,,,0.34,Wunderground v.1.15,2013-05-25 15:34:00,
2013-05-25 11:36:00,39.4,38.6,29.84,NW,320,5.0,10.0,97,0.04,,,0.34,Wunderground v.1.15,2013-05-25 15:36:00,
2013-05-25 11:38:00,39.5,38.7,29.84,NE,41,10.0,10.0,97,0.04,,,0.34,Wunderground v.1.15,2013-05-25 15:38:00,
2013-05-25 11:39:00,39.4,38.6,29.84,North,9,4.0,16.0,97,0.04,,,0.34,Wunderground v.1.15,2013-05-25 15:39:00,
2013-05-25 11:40:00,39.4,38.6,29.84,NE,36,5.0,16.0,97,0.04,,,0.34,Wunderground v.1.15,2013-05-25 15:40:00,
2013-05-25 11:41:00,39.3,38.5,29.84,NNW,343,4.0,18.0,97,0.04,,,0.34,Wunderground v.1.15,2013-05-25 15:41:00,
2013-05-25 11:43:00,39.3,38.5,29.83,NNE,26,4.0,18.0,97,0.04,,,0.34,Wunderground v.1.15,2013-05-25 15:43:00,
2013-05-25 11:45:00,39.2,38.4,29.84,NE,44,4.0,18.0,97,0.00,,,0.34,Wunderground v.1.15,2013-05-25 15:45:00,
2013-05-25 11:46:00,39.2,38.2,29.83,WNW,282,8.0,18.0,96,0.00,,,0.34,Wunderground v.1.15,2013-05-25 15:46:00,
2013-05-25 11:48:00,39.1,38.1,29.83,NW,311,4.0,18.0,96,0.00,,,0.35,Wunderground v.1.15,2013-05-25 15:48:00,
2013-05-25 11:50:00,39.1,38.1,29.83,WNW,298,8.0,18.0,96,0.00,,,0.35,Wunderground v.1.15,2013-05-25 15:50:00,
2013-05-25 11:52:00,39.1,38.1,29.83,West,281,6.0,14.0,96,0.00,,,0.35,Wunderground v.1.15,2013-05-25 15:52:00,
2013-05-25 11:53:00,39.0,38.0,29.84,NNW,331,6.0,18.0,96,0.00,,,0.35,Wunderground v.1.15,2013-05-25 15:53:00,
2013-05-25 11:54:00,39.0,38.0,29.84,North,360,4.0,18.0,96,0.00,,,0.35,Wunderground v.1.15,2013-05-25 15:54:00,
2013-05-25 11:55:00,38.9,37.9,29.84,NNW,332,10.0,18.0,96,0.00,,,0.35,Wunderground v.1.15,2013-05-25 15:55:00,
2013-05-25 11:57:00,38.9,38.1,29.83,NNE,31,1.0,18.0,97,0.00,,,0.35,Wunderground v.1.15,2013-05-25 15:57:00,
2013-05-25 11:58:00,38.9,38.1,29.84,NW,304,3.0,18.0,97,0.00,,,0.35,Wunderground v.1.15,2013-05-25 15:58:00,
2013-05-25 11:59:00,38.9,38.1,29.83,North,5,7.0,18.0,97,0.00,,,0.35,Wunderground v.1.15,2013-05-25 15:59:00,
2013-05-25 12:00:00,38.9,38.1,29.83,SE,126,4.0,6.0,97,0.00,,,0.35,Wunderground v.1.15,2013-05-25 16:00:00,
2013-05-25 12:01:00,38.9,38.1,29.83,NE,38,7.0,12.0,97,0.00,,,0.35,Wunderground v.1.15,2013-05-25 16:01:00,
2013-05-25 12:02:00,38.9,38.1,29.83,NNE,23,9.0,12.0,97,0.00,,,0.35,Wunderground v.1.15,2013-05-25 16:02:00,
2013-05-25 12:03:00,38.9,38.1,29.83,NNE,24,3.0,12.0,97,0.00,,,0.35,Wunderground v.1.15,2013-05-25 16:03:00,
2013-05-25 12:04:00,38.8,38.0,29.83,NW,304,5.0,12.0,97,0.00,,,0.35,Wunderground v.1.15,2013-05-25 16:04:00,
2013-05-25 12:06:00,38.8,38.0,29.83,NNW,344,9.0,12.0,97,0.00,,,0.35,Wunderground v.1.15,2013-05-25 16:06:00,
2013-05-25 12:08:00,38.8,38.0,29.83,NW,310,13.0,13.0,97,0.00,,,0.36,Wunderground v.1.15,2013-05-25 16:08:00,
2013-05-25 12:09:00,38.7,37.9,29.82,NW,308,5.0,13.0,97,0.00,,,0.36,Wunderground v.1.15,2013-05-25 16:09:00,
2013-05-25 12:11:00,38.8,38.0,29.83,West,279,0.0,7.0,97,0.00,,,0.36,Wunderground v.1.15,2013-05-25 16:11:00,
2013-05-25 12:13:00,38.8,38.0,29.83,South,191,3.0,14.0,97,0.00,,,0.36,Wunderground v.1.15,2013-05-25 16:13:00,
2013-05-25 12:14:00,38.7,37.9,29.82,West,279,4.0,14.0,97,0.00,,,0.36,Wunderground v.1.15,2013-05-25 16:14:00,
2013-05-25 12:16:00,38.8,38.0,29.82,WNW,296,10.0,14.0,97,0.00,,,0.36,Wunderground v.1.15,2013-05-25 16:16:00,
2013-05-25 12:17:00,38.8,38.0,29.82,NNE,13,11.0,14.0,97,0.00,,,0.36,Wunderground v.1.15,2013-05-25 16:17:00,
2013-05-25 12:19:00,38.8,38.0,29.82,NNE,23,3.0,14.0,97,0.00,,,0.36,Wunderground v.1.15,2013-05-25 16:19:00,
2013-05-25 12:21:00,38.8,38.0,29.82,West,263,5.0,12.0,97,0.00,,,0.36,Wunderground v.1.15,2013-05-25 16:21:00,
2013-05-25 12:22:00,38.8,38.0,29.82,NNE,27,10.0,14.0,97,0.00,,,0.36,Wunderground v.1.15,2013-05-25 16:22:00,
2013-05-25 12:24:00,38.9,38.1,29.82,NNW,346,3.0,14.0,97,0.00,,,0.36,Wunderground v.1.15,2013-05-25 16:24:00,
2013-05-25 12:27:00,38.9,38.1,29.82,SW,219,2.0,14.0,97,0.00,,,0.37,Wunderground v.1.15,2013-05-25 16:27:00,
2013-05-25 12:28:00,39.0,38.2,29.82,NW,304,7.0,14.0,97,0.00,,,0.37,Wunderground v.1.15,2013-05-25 16:28:00,
2013-05-25 12:29:00,39.1,38.3,29.82,WSW,248,10.0,14.0,97,0.00,,,0.37,Wunderground v.1.15,2013-05-25 16:29:00,
2013-05-25 12:30:00,39.1,38.3,29.82,WNW,286,3.0,14.0,97,0.00,,,0.37,Wunderground v.1.15,2013-05-25 16:30:00,
2013-05-25 12:32:00,39.1,38.3,29.82,WNW,290,2.0,11.0,97,0.00,,,0.37,Wunderground v.1.15,2013-05-25 16:32:00,
2013-05-25 12:33:00,39.1,38.3,29.82,North,360,7.0,13.0,97,0.00,,,0.37,Wunderground v.1.15,2013-05-25 16:33:00,
2013-05-25 12:34:00,39.1,38.3,29.82,North,360,4.0,13.0,97,0.00,,,0.37,Wunderground v.1.15,2013-05-25 16:34:00,
2013-05-25 12:35:00,39.1,38.3,29.82,NNE,24,9.0,13.0,97,0.00,,,0.37,Wunderground v.1.15,2013-05-25 16:35:00,
2013-05-25 12:37:00,39.2,38.4,29.82,NNE,15,6.0,14.0,97,0.00,,,0.37,Wunderground v.1.15,2013-05-25 16:37:00,
2013-05-25 12:39:00,39.2,38.4,29.82,North,360,4.0,14.0,97,0.00,,,0.37,Wunderground v.1.15,2013-05-25 16:39:00,
2013-05-25 12:40:00,39.2,38.4,29.82,WNW,282,5.0,14.0,97,0.00,,,0.37,Wunderground v.1.15,2013-05-25 16:40:00,
2013-05-25 12:42:00,39.2,38.2,29.82,NNE,22,4.0,12.0,96,0.04,,,0.38,Wunderground v.1.15,2013-05-25 16:42:00,
2013-05-25 12:44:00,39.2,38.2,29.82,WNW,300,2.0,12.0,96,0.04,,,0.38,Wunderground v.1.15,2013-05-25 16:44:00,
2013-05-25 12:45:00,39.3,38.5,29.82,NW,324,4.0,12.0,97,0.04,,,0.38,Wunderground v.1.15,2013-05-25 16:45:00,
2013-05-25 12:48:00,39.4,38.6,29.82,West,281,2.0,12.0,97,0.04,,,0.38,Wunderground v.1.15,2013-05-25 16:48:00,
2013-05-25 12:49:00,39.3,38.5,29.82,NE,52,8.0,12.0,97,0.04,,,0.38,Wunderground v.1.15,2013-05-25 16:49:00,
2013-05-25 12:50:00,39.2,38.2,29.83,WNW,296,2.0,5.0,96,0.04,,,0.38,Wunderground v.1.15,2013-05-25 16:50:00,
2013-05-25 12:51:00,39.1,38.1,29.83,West,263,10.0,10.0,96,0.04,,,0.38,Wunderground v.1.15,2013-05-25 16:51:00,
2013-05-25 12:53:00,39.0,38.0,29.82,NNW,342,11.0,18.0,96,0.04,,,0.38,Wunderground v.1.15,2013-05-25 16:53:00,
2013-05-25 12:54:00,38.9,37.9,29.83,ENE,61,4.0,18.0,96,0.04,,,0.38,Wunderground v.1.15,2013-05-25 16:54:00,
2013-05-25 12:55:00,38.9,37.9,29.83,NNW,336,5.0,18.0,96,0.04,,,0.38,Wunderground v.1.15,2013-05-25 16:55:00,
2013-05-25 12:56:00,38.9,37.9,29.82,NNW,340,7.0,18.0,96,0.04,,,0.38,Wunderground v.1.15,2013-05-25 16:56:00,
2013-05-25 12:58:00,38.7,37.7,29.83,ESE,105,1.0,18.0,96,0.00,,,0.38,Wunderground v.1.15,2013-05-25 16:58:00,
2013-05-25 13:01:00,38.8,37.8,29.83,ENE,59,22.0,22.0,96,0.00,,,0.39,Wunderground v.1.15,2013-05-25 17:01:00,
2013-05-25 13:02:00,38.7,37.7,29.83,NNW,343,9.0,22.0,96,0.00,,,0.39,Wunderground v.1.15,2013-05-25 17:02:00,
2013-05-25 13:04:00,38.6,37.6,29.83,NNW,338,5.0,22.0,96,0.00,,,0.39,Wunderground v.1.15,2013-05-25 17:04:00,
2013-05-25 13:06:00,38.6,37.6,29.83,NNE,20,5.0,22.0,96,0.00,,,0.39,Wunderground v.1.15,2013-05-25 17:06:00,
2013-05-25 13:07:00,38.6,37.6,29.83,ENE,59,5.0,22.0,96,0.00,,,0.39,Wunderground v.1.15,2013-05-25 17:07:00,
2013-05-25 13:09:00,38.6,37.6,29.83,WSW,254,3.0,22.0,96,0.00,,,0.39,Wunderground v.1.15,2013-05-25 17:09:00,
2013-05-25 13:11:00,38.5,37.5,29.83,North,5,2.0,8.0,96,0.00,,,0.39,Wunderground v.1.15,2013-05-25 17:11:00,
2013-05-25 13:12:00,38.5,37.5,29.83,WSW,241,3.0,8.0,96,0.00,,,0.39,Wunderground v.1.15,2013-05-25 17:12:00,
2013-05-25 13:15:00,38.4,37.4,29.82,NE,34,3.0,17.0,96,0.00,,,0.39,Wunderground v.1.15,2013-05-25 17:15:00,
2013-05-25 13:16:00,38.4,37.4,29.83,NE,47,5.0,17.0,96,0.04,,,0.40,Wunderground v.1.15,2013-05-25 17:16:00,
2013-05-25 13:17:00,38.3,37.3,29.83,SSW,208,0.0,17.0,96,0.04,,,0.40,Wunderground v.1.15,2013-05-25 17:17:00,
2013-05-25 13:20:00,38.4,37.4,29.82,North,5,4.0,17.0,96,0.04,,,0.40,Wunderground v.1.15,2013-05-25 17:20:00,
2013-05-25 13:21:00,38.4,37.4,29.83,West,261,8.0,8.0,96,0.04,,,0.40,Wunderground v.1.15,2013-05-25 17:21:00,
2013-05-25 13:22:00,38.4,37.4,29.83,NW,306,6.0,12.0,96,0.04,,,0.40,Wunderground v.1.15,2013-05-25 17:22:00,
2013-05-25 13:25:00,38.4,37.4,29.83,SW,235,9.0,12.0,96,0.04,,,0.40,Wunderground v.1.15,2013-05-25 17:25:00,
2013-05-25 13:26:00,38.4,37.4,29.82,South,178,1.0,12.0,96,0.04,,,0.40,Wunderground v.1.15,2013-05-25 17:26:00,
2013-05-25 13:27:00,38.4,37.4,29.83,West,270,3.0,12.0,96,0.04,,,0.40,Wunderground v.1.15,2013-05-25 17:27:00,
2013-05-25 13:30:00,38.5,37.7,29.82,NNE,26,0.0,4.0,97,0.05,,,0.41,Wunderground v.1.15,2013-05-25 17:30:00,
2013-05-25 13:31:00,38.6,37.8,29.82,WNW,300,0.0,5.0,97,0.05,,,0.41,Wunderground v.1.15,2013-05-25 17:31:00,
2013-05-25 13:32:00,38.6,37.8,29.83,West,270,1.0,5.0,97,0.05,,,0.41,Wunderground v.1.15,2013-05-25 17:32:00,
2013-05-25 13:35:00,38.7,37.9,29.83,NNW,346,10.0,18.0,97,0.05,,,0.41,Wunderground v.1.15,2013-05-25 17:35:00,
2013-05-25 13:36:00,38.6,37.8,29.83,NNW,344,3.0,18.0,97,0.05,,,0.41,Wunderground v.1.15,2013-05-25 17:36:00,
2013-05-25 13:37:00,38.6,37.6,29.83,NNW,333,12.0,18.0,96,0.05,,,0.41,Wunderground v.1.15,2013-05-25 17:37:00,
2013-05-25 13:38:00,38.6,37.6,29.83,NE,49,7.0,18.0,96,0.05,,,0.41,Wunderground v.1.15,2013-05-25 17:38:00,
2013-05-25 13:41:00,38.6,37.6,29.83,North,355,4.0,13.0,96,0.05,,,0.41,Wunderground v.1.15,2013-05-25 17:41:00,
2013-05-25 13:42:00,38.6,37.6,29.83,North,9,7.0,13.0,96,0.04,,,0.41,Wunderground v.1.15,2013-05-25 17:42:00,
2013-05-25 13:43:00,38.7,37.9,29.83,WNW,302,5.0,13.0,97,0.04,,,0.41,Wunderground v.1.15,2013-05-25 17:43:00,
2013-05-25 13:46:00,38.8,38.0,29.83,WNW,292,2.0,13.0,97,0.04,,,0.42,Wunderground v.1.15,2013-05-25 17:46:00,
2013-05-25 13:47:00,38.8,38.0,29.83,NNW,333,5.0,13.0,97,0.04,,,0.42,Wunderground v.1.15,2013-05-25 17:47:00,
2013-05-25 13:48:00,38.8,38.0,29.83,NW,317,13.0,13.0,97,0.04,,,0.42,Wunderground v.1.15,2013-05-25 17:48:00,
2013-05-25 13:52:00,38.8,38.0,29.82,NE,38,7.0,13.0,97,0.04,,,0.42,Wunderground v.1.15,2013-05-25 17:52:00,
2013-05-25 13:53:00,38.8,38.0,29.83,NNW,327,14.0,14.0,97,0.04,,,0.42,Wunderground v.1.15,2013-05-25 17:53:00,
2013-05-25 13:57:00,38.7,37.7,29.84,North,9,8.0,15.0,96,0.04,,,0.42,Wunderground v.1.15,2013-05-25 17:57:00,
2013-05-25 13:58:00,38.6,37.6,29.83,NE,42,9.0,15.0,96,0.04,,,0.43,Wunderground v.1.15,2013-05-25 17:58:00,
2013-05-25 14:03:00,38.6,37.6,29.83,NE,50,3.0,17.0,96,0.04,,,0.43,Wunderground v.1.15,2013-05-25 18:03:00,
2013-05-25 14:04:00,38.6,37.6,29.83,ESE,103,0.0,17.0,96,0.04,,,0.43,Wunderground v.1.15,2013-05-25 18:04:00,
2013-05-25 14:08:00,38.4,37.4,29.83,NNE,28,4.0,17.0,96,0.04,,,0.43,Wunderground v.1.15,2013-05-25 18:08:00,
2013-05-25 14:09:00,38.4,37.4,29.83,WNW,303,12.0,17.0,96,0.04,,,0.43,Wunderground v.1.15,2013-05-25 18:09:00,
2013-05-25 14:13:00,38.4,37.6,29.83,WSW,254,0.0,8.0,97,0.04,,,0.43,Wunderground v.1.15,2013-05-25 18:13:00,
2013-05-25 14:14:00,38.4,37.6,29.83,SE,132,0.0,8.0,97,0.04,,,0.43,Wunderground v.1.15,2013-05-25 18:14:00,
2013-05-25 14:19:00,38.2,37.4,29.83,West,273,0.0,11.0,97,0.04,,,0.44,Wunderground v.1.15,2013-05-25 18:19:00,
2013-05-25 14:20:00,38.3,37.5,29.83,North,5,9.0,9.0,97,0.04,,,0.44,Wunderground v.1.15,2013-05-25 18:20:00,
2013-05-25 14:24:00,38.1,37.3,29.83,WNW,291,0.0,17.0,97,0.04,,,0.44,Wunderground v.1.15,2013-05-25 18:24:00,
2013-05-25 14:25:00,38.1,37.3,29.84,NW,321,5.0,17.0,97,0.04,,,0.44,Wunderground v.1.15,2013-05-25 18:25:00,
2013-05-25 14:26:00,38.1,37.3,29.84,NE,40,4.0,17.0,97,0.04,,,0.44,Wunderground v.1.15,2013-05-25 18:26:00,
2013-05-25 14:29:00,38.0,37.2,29.84,SSE,155,4.0,17.0,97,0.05,,,0.45,Wunderground v.1.15,2013-05-25 18:29:00,
2013-05-25 14:30:00,38.0,37.2,29.84,West,281,0.0,17.0,97,0.05,,,0.45,Wunderground v.1.15,2013-05-25 18:30:00,
2013-05-25 14:31:00,38.0,37.2,29.84,NE,38,4.0,4.0,97,0.05,,,0.45,Wunderground v.1.15,2013-05-25 18:31:00,
2013-05-25 14:34:00,37.9,37.1,29.83,WNW,289,5.0,13.0,97,0.05,,,0.45,Wunderground v.1.15,2013-05-25 18:34:00,
2013-05-25 14:35:00,37.9,37.1,29.83,North,355,9.0,13.0,97,0.05,,,0.45,Wunderground v.1.15,2013-05-25 18:35:00,
2013-05-25 14:36:00,37.8,37.0,29.83,NNW,336,5.0,13.0,97,0.05,,,0.45,Wunderground v.1.15,2013-05-25 18:36:00,
2013-05-25 14:39:00,37.9,37.1,29.84,NW,314,3.0,13.0,97,0.05,,,0.45,Wunderground v.1.15,2013-05-25 18:39:00,
2013-05-25 14:40:00,37.9,37.1,29.84,NE,55,14.0,14.0,97,0.05,,,0.45,Wunderground v.1.15,2013-05-25 18:40:00,
2013-05-25 14:42:00,37.8,37.0,29.84,NW,310,7.0,10.0,97,0.04,,,0.45,Wunderground v.1.15,2013-05-25 18:42:00,
2013-05-25 14:44:00,37.7,36.9,29.83,North,349,7.0,11.0,97,0.04,,,0.46,Wunderground v.1.15,2013-05-25 18:44:00,
2013-05-25 14:45:00,37.7,36.9,29.83,ESE,103,5.0,11.0,97,0.04,,,0.46,Wunderground v.1.15,2013-05-25 18:45:00,
2013-05-25 14:46:00,37.6,36.8,29.83,WNW,290,0.0,11.0,97,0.04,,,0.46,Wunderground v.1.15,2013-05-25 18:46:00,
2013-05-25 14:47:00,37.5,36.7,29.83,NNW,336,8.0,15.0,97,0.04,,,0.46,Wunderground v.1.15,2013-05-25 18:47:00,
2013-05-25 14:49:00,37.4,36.6,29.83,North,11,3.0,15.0,97,0.04,,,0.46,Wunderground v.1.15,2013-05-25 18:49:00,
2013-05-25 14:50:00,37.4,36.6,29.84,NNE,26,0.0,15.0,97,0.04,,,0.46,Wunderground v.1.15,2013-05-25 18:50:00,
2013-05-25 14:51:00,37.4,36.6,29.84,NE,56,7.0,11.0,97,0.04,,,0.46,Wunderground v.1.15,2013-05-25 18:51:00,
2013-05-25 14:52:00,37.4,36.6,29.84,North,5,5.0,11.0,97,0.04,,,0.46,Wunderground v.1.15,2013-05-25 18:52:00,
2013-05-25 14:55:00,37.4,36.6,29.84,North,349,8.0,13.0,97,0.04,,,0.46,Wunderground v.1.15,2013-05-25 18:55:00,
2013-05-25 14:56:00,37.4,36.6,29.84,NNE,23,4.0,15.0,97,0.04,,,0.46,Wunderground v.1.15,2013-05-25 18:56:00,
2013-05-25 14:58:00,37.4,36.6,29.83,ENE,60,4.0,15.0,97,0.05,,,0.47,Wunderground v.1.15,2013-05-25 18:58:00,
2013-05-25 15:00:00,37.3,36.5,29.83,NNE,22,1.0,6.0,97,0.05,,,0.47,Wunderground v.1.15,2013-05-25 19:00:00,
2013-05-25 15:01:00,37.3,36.5,29.84,NNW,340,5.0,6.0,97,0.05,,,0.47,Wunderground v.1.15,2013-05-25 19:01:00,
2013-05-25 15:03:00,37.3,36.5,29.84,WSW,256,4.0,12.0,97,0.05,,,0.47,Wunderground v.1.15,2013-05-25 19:03:00,
2013-05-25 15:06:00,37.4,36.6,29.84,NW,324,11.0,16.0,97,0.05,,,0.47,Wunderground v.1.15,2013-05-25 19:06:00,
2013-05-25 15:08:00,37.4,36.6,29.83,WNW,302,3.0,16.0,97,0.05,,,0.47,Wunderground v.1.15,2013-05-25 19:08:00,
2013-05-25 15:11:00,37.4,36.6,29.83,NNE,17,8.0,16.0,97,0.04,,,0.47,Wunderground v.1.15,2013-05-25 19:11:00,
2013-05-25 15:13:00,37.4,36.6,29.84,NE,55,3.0,16.0,97,0.04,,,0.48,Wunderground v.1.15,2013-05-25 19:13:00,
2013-05-25 15:16:00,37.4,36.6,29.84,NE,55,0.0,17.0,97,0.04,,,0.48,Wunderground v.1.15,2013-05-25 19:16:00,
2013-05-25 15:19:00,37.5,36.7,29.84,WSW,241,4.0,17.0,97,0.04,,,0.48,Wunderground v.1.15,2013-05-25 19:19:00,
2013-05-25 15:21:00,37.5,36.7,29.83,SSW,200,4.0,12.0,97,0.04,,,0.48,Wunderground v.1.15,2013-05-25 19:21:00,
2013-05-25 15:22:00,37.5,36.7,29.83,WNW,302,5.0,12.0,97,0.04,,,0.48,Wunderground v.1.15,2013-05-25 19:22:00,
2013-05-25 15:24:00,37.3,36.5,29.84,North,5,7.0,15.0,97,0.04,,,0.48,Wunderground v.1.15,2013-05-25 19:24:00,
2013-05-25 15:26:00,37.1,36.3,29.84,NW,318,5.0,15.0,97,0.04,,,0.48,Wunderground v.1.15,2013-05-25 19:26:00,
2013-05-25 15:27:00,37.1,36.3,29.84,North,5,3.0,15.0,97,0.04,,,0.48,Wunderground v.1.15,2013-05-25 19:27:00,
2013-05-25 15:30:00,36.9,35.9,29.84,NW,315,6.0,6.0,96,0.04,,,0.49,Wunderground v.1.15,2013-05-25 19:30:00,
2013-05-25 15:32:00,37.0,36.2,29.84,NNW,331,5.0,17.0,97,0.04,,,0.49,Wunderground v.1.15,2013-05-25 19:32:00,
2013-05-25 15:36:00,36.9,36.1,29.84,NNE,17,2.0,17.0,97,0.04,,,0.49,Wunderground v.1.15,2013-05-25 19:36:00,
2013-05-25 15:37:00,36.9,36.1,29.84,West,277,4.0,17.0,97,0.04,,,0.49,Wunderground v.1.15,2013-05-25 19:37:00,
2013-05-25 15:38:00,36.9,36.1,29.84,SSW,203,4.0,17.0,97,0.04,,,0.49,Wunderground v.1.15,2013-05-25 19:38:00,
2013-05-25 15:41:00,36.8,36.0,29.84,NNW,334,6.0,14.0,97,0.04,,,0.49,Wunderground v.1.15,2013-05-25 19:41:00,
2013-05-25 15:42:00,36.8,35.8,29.84,WSW,258,10.0,14.0,96,0.04,,,0.49,Wunderground v.1.15,2013-05-25 19:42:00,
2013-05-25 15:43:00,36.7,35.7,29.84,East,98,2.0,14.0,96,0.04,,,0.49,Wunderground v.1.15,2013-05-25 19:43:00,
2013-05-25 15:46:00,36.7,35.9,29.84,NNE,24,3.0,14.0,97,0.04,,,0.50,Wunderground v.1.15,2013-05-25 19:46:00,
2013-05-25 15:47:00,36.7,35.9,29.84,North,10,0.0,15.0,97,0.04,,,0.50,Wunderground v.1.15,2013-05-25 19:47:00,
2013-05-25 15:48:00,36.7,35.9,29.84,WNW,298,0.0,15.0,97,0.04,,,0.50,Wunderground v.1.15,2013-05-25 19:48:00,
2013-05-25 15:52:00,36.8,36.0,29.84,West,271,7.0,16.0,97,0.04,,,0.50,Wunderground v.1.15,2013-05-25 19:52:00,
2013-05-25 15:53:00,36.8,36.0,29.84,NNW,342,13.0,16.0,97,0.04,,,0.50,Wunderground v.1.15,2013-05-25 19:53:00,
2013-05-25 15:54:00,36.8,36.0,29.84,NNW,344,3.0,16.0,97,0.04,,,0.50,Wunderground v.1.15,2013-05-25 19:54:00,
2013-05-25 15:57:00,36.9,36.1,29.84,NE,49,5.0,16.0,97,0.04,,,0.50,Wunderground v.1.15,2013-05-25 19:57:00,
2013-05-25 15:58:00,36.9,36.1,29.83,NNW,336,10.0,16.0,97,0.04,,,0.50,Wunderground v.1.15,2013-05-25 19:58:00,
2013-05-25 15:59:00,36.9,36.1,29.83,North,5,8.0,16.0,97,0.04,,,0.51,Wunderground v.1.15,2013-05-25 19:59:00,
2013-05-25 16:03:00,37.1,36.3,29.83,ENE,78,7.0,17.0,97,0.04,,,0.51,Wunderground v.1.15,2013-05-25 20:03:00,
2013-05-25 16:04:00,37.1,36.3,29.83,NNW,346,7.0,17.0,97,0.04,,,0.51,Wunderground v.1.15,2013-05-25 20:04:00,
2013-05-25 16:08:00,37.2,36.4,29.83,NNW,344,1.0,17.0,97,0.04,,,0.51,Wunderground v.1.15,2013-05-25 20:08:00,
2013-05-25 16:09:00,37.2,36.4,29.83,North,349,8.0,17.0,97,0.04,,,0.51,Wunderground v.1.15,2013-05-25 20:09:00,
2013-05-25 16:10:00,37.2,36.4,29.84,WSW,254,3.0,6.0,97,0.04,,,0.51,Wunderground v.1.15,2013-05-25 20:10:00,
2013-05-25 16:13:00,37.2,36.4,29.83,SW,233,0.0,7.0,97,0.04,,,0.51,Wunderground v.1.15,2013-05-25 20:13:00,
2013-05-25 16:14:00,37.2,36.4,29.83,WSW,247,5.0,7.0,97,0.04,,,0.51,Wunderground v.1.15,2013-05-25 20:14:00,
2013-05-25 16:15:00,37.2,36.4,29.84,NNW,336,9.0,11.0,97,0.00,,,0.51,Wunderground v.1.15,2013-05-25 20:15:00,
2013-05-25 16:18:00,37.0,36.2,29.83,NW,307,6.0,11.0,97,0.00,,,0.52,Wunderground v.1.15,2013-05-25 20:18:00,
2013-05-25 16:19:00,37.0,36.2,29.84,North,355,5.0,15.0,97,0.00,,,0.52,Wunderground v.1.15,2013-05-25 20:19:00,
2013-05-25 16:20:00,36.9,35.9,29.83,West,265,7.0,15.0,96,0.00,,,0.52,Wunderground v.1.15,2013-05-25 20:20:00,
2013-05-25 16:21:00,36.8,35.8,29.84,NNW,344,8.0,10.0,96,0.00,,,0.52,Wunderground v.1.15,2013-05-25 20:21:00,
2013-05-25 16:24:00,36.6,35.8,29.84,North,5,7.0,17.0,97,0.00,,,0.52,Wunderground v.1.15,2013-05-25 20:24:00,
2013-05-25 16:25:00,36.5,35.7,29.83,West,277,6.0,17.0,97,0.00,,,0.52,Wunderground v.1.15,2013-05-25 20:25:00,
2013-05-25 16:26:00,36.5,35.7,29.83,SE,140,4.0,17.0,97,0.00,,,0.52,Wunderground v.1.15,2013-05-25 20:26:00,
2013-05-25 16:29:00,36.3,35.5,29.83,NNE,26,7.0,17.0,97,0.00,,,0.52,Wunderground v.1.15,2013-05-25 20:29:00,
2013-05-25 16:30:00,36.2,35.4,29.84,North,360,5.0,17.0,97,0.04,,,0.53,Wunderground v.1.15,2013-05-25 20:30:00,
2013-05-25 16:31:00,36.2,35.4,29.84,NW,311,6.0,16.0,97,0.04,,,0.53,Wunderground v.1.15,2013-05-25 20:31:00,
2013-05-25 16:34:00,36.1,35.3,29.83,SW,232,7.0,16.0,97,0.04,,,0.53,Wunderground v.1.15,2013-05-25 20:34:00,
2013-05-25 16:35:00,36.0,35.2,29.84,NNE,21,3.0,16.0,97,0.04,,,0.53,Wunderground v.1.15,2013-05-25 20:35:00,
2013-05-25 16:36:00,36.0,35.2,29.84,WNW,298,2.0,16.0,97,0.04,,,0.53,Wunderground v.1.15,2013-05-25 20:36:00,
2013-05-25 16:37:00,35.9,35.1,29.84,NE,48,10.0,16.0,97,0.04,,,0.53,Wunderground v.1.15,2013-05-25 20:37:00,
2013-05-25 16:39:00,35.8,35.0,29.84,NNW,344,3.0,22.0,97,0.04,,,0.53,Wunderground v.1.15,2013-05-25 20:39:00,
2013-05-25 16:40:00,35.8,35.0,29.84,NNW,340,3.0,7.0,97,0.04,,,0.53,Wunderground v.1.15,2013-05-25 20:40:00,
2013-05-25 16:41:00,35.7,34.9,29.83,WSW,252,0.0,7.0,97,0.04,,,0.53,Wunderground v.1.15,2013-05-25 20:41:00,
2013-05-25 16:42:00,35.7,34.9,29.83,NNE,22,4.0,7.0,97,0.04,,,0.53,Wunderground v.1.15,2013-05-25 20:42:00,
2013-05-25 16:44:00,35.6,34.8,29.84,ENE,72,5.0,13.0,97,0.04,,,0.54,Wunderground v.1.15,2013-05-25 20:44:00,
2013-05-25 16:46:00,35.5,34.7,29.84,North,351,5.0,13.0,97,0.04,,,0.54,Wunderground v.1.15,2013-05-25 20:46:00,
2013-05-25 16:47:00,35.5,34.7,29.84,NNW,338,8.0,13.0,97,0.04,,,0.54,Wunderground v.1.15,2013-05-25 20:47:00,
2013-05-25 16:48:00,35.4,34.6,29.83,NNW,346,4.0,13.0,97,0.04,,,0.54,Wunderground v.1.15,2013-05-25 20:48:00,
2013-05-25 16:50:00,35.3,34.5,29.84,WNW,296,6.0,14.0,97,0.04,,,0.54,Wunderground v.1.15,2013-05-25 20:50:00,
2013-05-25 16:51:00,35.2,34.4,29.83,NW,309,7.0,7.0,97,0.04,,,0.54,Wunderground v.1.15,2013-05-25 20:51:00,
2013-05-25 16:52:00,35.2,34.4,29.84,NNW,348,3.0,9.0,97,0.04,,,0.54,Wunderground v.1.15,2013-05-25 20:52:00,
2013-05-25 16:53:00,35.2,34.4,29.84,West,276,4.0,9.0,97,0.04,,,0.54,Wunderground v.1.15,2013-05-25 20:53:00,
2013-05-25 16:55:00,35.0,34.2,29.84,South,175,4.0,17.0,97,0.04,,,0.54,Wunderground v.1.15,2013-05-25 20:55:00,
2013-05-25 16:56:00,35.0,34.2,29.84,NW,325,4.0,17.0,97,0.04,,,0.54,Wunderground v.1.15,2013-05-25 20:56:00,
2013-05-25 16:57:00,35.0,34.2,29.83,North,9,2.0,17.0,97,0.04,,,0.54,Wunderground v.1.15,2013-05-25 20:57:00,
2013-05-25 16:59:00,35.0,34.2,29.83,WNW,294,5.0,17.0,97,0.04,,,0.55,Wunderground v.1.15,2013-05-25 20:59:00,
2013-05-25 17:00:00,34.9,34.1,29.83,NW,306,4.0,6.0,97,0.04,,,0.55,Wunderground v.1.15,2013-05-25 21:00:00,
2013-05-25 17:01:00,34.8,34.0,29.83,WSW,254,6.0,12.0,97,0.04,,,0.55,Wunderground v.1.15,2013-05-25 21:01:00,
2013-05-25 17:02:00,34.8,34.0,29.84,West,271,7.0,12.0,97,0.04,,,0.55,Wunderground v.1.15,2013-05-25 21:02:00,
2013-05-25 17:04:00,34.7,33.9,29.84,NW,305,6.0,13.0,97,0.04,,,0.55,Wunderground v.1.15,2013-05-25 21:04:00,
2013-05-25 17:05:00,34.7,33.9,29.84,NW,321,4.0,13.0,97,0.04,,,0.55,Wunderground v.1.15,2013-05-25 21:05:00,
2013-05-25 17:07:00,34.6,33.8,29.85,NNW,342,0.0,13.0,97,0.04,,,0.55,Wunderground v.1.15,2013-05-25 21:07:00,
2013-05-25 17:08:00,34.6,33.8,29.84,NNE,13,2.0,13.0,97,0.04,,,0.55,Wunderground v.1.15,2013-05-25 21:08:00,
2013-05-25 17:09:00,34.6,33.8,29.84,WNW,292,6.0,13.0,97,0.04,,,0.55,Wunderground v.1.15,2013-05-25 21:09:00,
2013-05-25 17:11:00,34.5,33.7,29.84,WNW,285,1.0,5.0,97,0.04,,,0.55,Wunderground v.1.15,2013-05-25 21:11:00,
2013-05-25 17:12:00,34.4,33.6,29.84,South,178,6.0,10.0,97,0.04,,,0.55,Wunderground v.1.15,2013-05-25 21:12:00,
2013-05-25 17:13:00,34.4,33.6,29.84,WSW,239,2.0,10.0,97,0.04,,,0.55,Wunderground v.1.15,2013-05-25 21:13:00,
2013-05-25 17:14:00,34.3,33.5,29.84,NNE,17,4.0,10.0,97,0.04,,,0.55,Wunderground v.1.15,2013-05-25 21:14:00,
2013-05-25 17:16:00,34.3,33.5,29.84,SW,231,0.0,10.0,97,0.04,,,0.56,Wunderground v.1.15,2013-05-25 21:16:00,
2013-05-25 17:18:00,34.3,33.5,29.84,SW,222,3.0,10.0,97,0.04,,,0.56,Wunderground v.1.15,2013-05-25 21:18:00,
2013-05-25 17:19:00,34.3,33.8,29.84,NNW,334,4.0,10.0,98,0.04,,,0.56,Wunderground v.1.15,2013-05-25 21:19:00,
2013-05-25 17:22:00,34.2,33.7,29.85,NNE,23,4.0,11.0,98,0.04,,,0.56,Wunderground v.1.15,2013-05-25 21:22:00,
2013-05-25 17:23:00,34.2,33.7,29.84,West,259,6.0,11.0,98,0.04,,,0.56,Wunderground v.1.15,2013-05-25 21:23:00,
2013-05-25 17:24:00,34.2,33.7,29.84,NNW,331,2.0,11.0,98,0.04,,,0.56,Wunderground v.1.15,2013-05-25 21:24:00,
2013-05-25 17:27:00,34.2,33.7,29.84,NW,307,3.0,11.0,98,0.04,,,0.56,Wunderground v.1.15,2013-05-25 21:27:00,
2013-05-25 17:28:00,34.2,33.7,29.84,NE,34,0.0,11.0,98,0.04,,,0.56,Wunderground v.1.15,2013-05-25 21:28:00,
2013-05-25 17:29:00,34.2,33.7,29.84,NNE,28,1.0,11.0,98,0.04,,,0.56,Wunderground v.1.15,2013-05-25 21:29:00,
2013-05-25 17:30:00,34.2,33.7,29.84,NW,309,2.0,11.0,98,0.04,,,0.57,Wunderground v.1.15,2013-05-25 21:30:00,
2013-05-25 17:32:00,34.2,33.7,29.84,NNE,28,2.0,4.0,98,0.04,,,0.57,Wunderground v.1.15,2013-05-25 21:32:00,
2013-05-25 17:33:00,34.2,33.7,29.84,West,268,3.0,11.0,98,0.04,,,0.57,Wunderground v.1.15,2013-05-25 21:33:00,
2013-05-25 17:34:00,34.2,33.7,29.84,NW,323,4.0,11.0,98,0.04,,,0.57,Wunderground v.1.15,2013-05-25 21:34:00,
2013-05-25 17:35:00,34.3,33.8,29.85,WNW,285,1.0,11.0,98,0.04,,,0.57,Wunderground v.1.15,2013-05-25 21:35:00,
2013-05-25 17:37:00,34.3,33.8,29.84,West,265,4.0,11.0,98,0.04,,,0.57,Wunderground v.1.15,2013-05-25 21:37:00,
2013-05-25 17:38:00,34.3,33.8,29.84,West,275,1.0,11.0,98,0.04,,,0.57,Wunderground v.1.15,2013-05-25 21:38:00,
2013-05-25 17:39:00,34.3,33.8,29.84,NW,306,4.0,11.0,98,0.04,,,0.57,Wunderground v.1.15,2013-05-25 21:39:00,
2013-05-25 17:40:00,34.3,33.8,29.84,SW,227,0.0,3.0,98,0.04,,,0.57,Wunderground v.1.15,2013-05-25 21:40:00,
2013-05-25 17:41:00,34.3,33.8,29.84,SW,227,0.0,3.0,98,0.04,,,0.57,Wunderground v.1.15,2013-05-25 21:41:00,
2013-05-25 17:42:00,34.3,33.8,29.84,South,189,2.0,4.0,98,0.04,,,0.57,Wunderground v.1.15,2013-05-25 21:42:00,
2013-05-25 17:44:00,34.3,33.8,29.84,NE,40,4.0,4.0,98,0.04,,,0.57,Wunderground v.1.15,2013-05-25 21:44:00,
2013-05-25 17:45:00,34.3,33.8,29.84,NW,311,4.0,12.0,98,0.04,,,0.57,Wunderground v.1.15,2013-05-25 21:45:00,
2013-05-25 17:46:00,34.4,33.9,29.84,North,5,2.0,12.0,98,0.04,,,0.57,Wunderground v.1.15,2013-05-25 21:46:00,
2013-05-25 17:48:00,34.4,33.9,29.84,WNW,292,6.0,12.0,98,0.00,,,0.57,Wunderground v.1.15,2013-05-25 21:48:00,
2013-05-25 17:49:00,34.5,34.0,29.84,SW,234,1.0,12.0,98,0.00,,,0.58,Wunderground v.1.15,2013-05-25 21:49:00,
2013-05-25 17:50:00,34.5,34.0,29.84,WNW,294,2.0,3.0,98,0.00,,,0.58,Wunderground v.1.15,2013-05-25 21:50:00,
2013-05-25 17:51:00,34.5,34.0,29.84,WSW,241,4.0,7.0,98,0.00,,,0.58,Wunderground v.1.15,2013-05-25 21:51:00,
2013-05-25 17:53:00,34.6,34.1,29.84,WSW,246,1.0,8.0,98,0.00,,,0.58,Wunderground v.1.15,2013-05-25 21:53:00,
2013-05-25 17:54:00,34.6,34.1,29.84,WNW,288,0.0,8.0,98,0.00,,,0.58,Wunderground v.1.15,2013-05-25 21:54:00,
2013-05-25 17:55:00,34.6,34.1,29.84,NW,317,5.0,9.0,98,0.00,,,0.58,Wunderground v.1.15,2013-05-25 21:55:00,
2013-05-25 17:56:00,34.6,34.1,29.84,West,281,6.0,10.0,98,0.00,,,0.58,Wunderground v.1.15,2013-05-25 21:56:00,
2013-05-25 17:57:00,34.7,34.2,29.85,NNW,341,6.0,10.0,98,0.00,,,0.58,Wunderground v.1.15,2013-05-25 21:57:00,
2013-05-25 17:58:00,34.6,34.1,29.84,NNW,338,9.0,10.0,98,0.00,,,0.58,Wunderground v.1.15,2013-05-25 21:58:00,
2013-05-25 17:59:00,34.7,34.2,29.84,North,360,2.0,16.0,98,0.00,,,0.58,Wunderground v.1.15,2013-05-25 21:59:00,
2013-05-25 18:00:00,34.7,34.2,29.84,NW,319,6.0,6.0,98,0.00,,,0.58,Wunderground v.1.15,2013-05-25 22:00:00,
2013-05-25 18:01:00,34.7,34.2,29.84,West,273,5.0,8.0,98,0.00,,,0.58,Wunderground v.1.15,2013-05-25 22:01:00,
2013-05-25 18:02:00,34.7,34.2,29.84,WSW,242,2.0,8.0,98,0.00,,,0.58,Wunderground v.1.15,2013-05-25 22:02:00,
2013-05-25 18:03:00,34.8,34.3,29.84,SW,231,2.0,8.0,98,0.00,,,0.58,Wunderground v.1.15,2013-05-25 22:03:00,
2013-05-25 18:04:00,34.7,34.2,29.84,WSW,246,2.0,8.0,98,0.00,,,0.58,Wunderground v.1.15,2013-05-25 22:04:00,
2013-05-25 18:06:00,34.8,34.3,29.84,WNW,302,1.0,8.0,98,0.04,,,0.59,Wunderground v.1.15,2013-05-25 22:06:00,
2013-05-25 18:08:00,34.8,34.3,29.84,North,360,14.0,14.0,98,0.04,,,0.59,Wunderground v.1.15,2013-05-25 22:08:00,
2013-05-25 18:09:00,34.8,34.3,29.84,West,271,0.0,14.0,98,0.04,,,0.59,Wunderground v.1.15,2013-05-25 22:09:00,
2013-05-25 18:11:00,34.8,34.3,29.84,North,11,8.0,8.0,98,0.04,,,0.59,Wunderground v.1.15,2013-05-25 22:11:00,
2013-05-25 18:12:00,34.8,34.3,29.84,North,5,4.0,8.0,98,0.04,,,0.59,Wunderground v.1.15,2013-05-25 22:12:00,
2013-05-25 18:13:00,34.8,34.3,29.84,NE,36,3.0,8.0,98,0.04,,,0.59,Wunderground v.1.15,2013-05-25 22:13:00,
2013-05-25 18:14:00,34.9,34.4,29.84,WNW,300,2.0,8.0,98,0.04,,,0.59,Wunderground v.1.15,2013-05-25 22:14:00,
2013-05-25 18:17:00,34.9,34.4,29.85,NNW,340,8.0,9.0,98,0.04,,,0.59,Wunderground v.1.15,2013-05-25 22:17:00,
2013-05-25 18:18:00,34.9,34.4,29.84,West,272,10.0,10.0,98,0.04,,,0.59,Wunderground v.1.15,2013-05-25 22:18:00,
2013-05-25 18:19:00,35.0,34.5,29.84,WSW,241,4.0,10.0,98,0.04,,,0.59,Wunderground v.1.15,2013-05-25 22:19:00,
2013-05-25 18:22:00,35.0,34.5,29.84,NNW,348,6.0,11.0,98,0.00,,,0.59,Wunderground v.1.15,2013-05-25 22:22:00,
2013-05-25 18:23:00,35.0,34.5,29.84,NNW,342,3.0,11.0,98,0.00,,,0.59,Wunderground v.1.15,2013-05-25 22:23:00,
2013-05-25 18:24:00,35.0,34.5,29.84,SSE,154,4.0,12.0,98,0.00,,,0.60,Wunderground v.1.15,2013-05-25 22:24:00,
2013-05-25 18:27:00,35.1,34.6,29.85,NE,51,8.0,22.0,98,0.00,,,0.60,Wunderground v.1.15,2013-05-25 22:27:00,
2013-05-25 18:28:00,35.0,34.5,29.84,North,355,6.0,22.0,98,0.00,,,0.60,Wunderground v.1.15,2013-05-25 22:28:00,
2013-05-25 18:29:00,35.1,34.6,29.84,WNW,283,2.0,22.0,98,0.00,,,0.60,Wunderground v.1.15,2013-05-25 22:29:00,
2013-05-25 18:30:00,35.1,34.6,29.84,West,279,7.0,22.0,98,0.00,,,0.60,Wunderground v.1.15,2013-05-25 22:30:00,
2013-05-25 18:32:00,35.1,34.6,29.85,SW,215,3.0,9.0,98,0.00,,,0.60,Wunderground v.1.15,2013-05-25 22:32:00,
2013-05-25 18:33:00,35.1,34.6,29.84,SSW,209,3.0,9.0,98,0.00,,,0.60,Wunderground v.1.15,2013-05-25 22:33:00,
2013-05-25 18:34:00,35.1,34.6,29.84,NW,308,3.0,9.0,98,0.00,,,0.60,Wunderground v.1.15,2013-05-25 22:34:00,
2013-05-25 18:36:00,35.1,34.6,29.84,NW,305,3.0,12.0,98,0.00,,,0.60,Wunderground v.1.15,2013-05-25 22:36:00,
2013-05-25 18:37:00,35.1,34.6,29.84,NW,322,17.0,17.0,98,0.00,,,0.60,Wunderground v.1.15,2013-05-25 22:37:00,
2013-05-25 18:38:00,35.1,34.6,29.85,NNW,334,14.0,17.0,98,0.00,,,0.60,Wunderground v.1.15,2013-05-25 22:38:00,
2013-05-25 18:39:00,35.1,34.6,29.84,WNW,298,7.0,17.0,98,0.04,,,0.61,Wunderground v.1.15,2013-05-25 22:39:00,
2013-05-25 18:41:00,35.1,34.6,29.84,West,274,10.0,15.0,98,0.04,,,0.61,Wunderground v.1.15,2013-05-25 22:41:00,
2013-05-25 18:42:00,35.1,34.6,29.84,WSW,257,8.0,15.0,98,0.04,,,0.61,Wunderground v.1.15,2013-05-25 22:42:00,
2013-05-25 18:43:00,35.1,34.6,29.85,WNW,296,1.0,15.0,98,0.04,,,0.61,Wunderground v.1.15,2013-05-25 22:43:00,
2013-05-25 18:44:00,35.1,34.6,29.85,NW,319,9.0,15.0,98,0.04,,,0.61,Wunderground v.1.15,2013-05-25 22:44:00,
2013-05-25 18:45:00,35.1,34.6,29.85,NW,309,0.0,15.0,98,0.04,,,0.61,Wunderground v.1.15,2013-05-25 22:45:00,
2013-05-25 18:46:00,35.1,34.6,29.85,East,84,3.0,15.0,98,0.04,,,0.61,Wunderground v.1.15,2013-05-25 22:46:00,
2013-05-25 18:47:00,35.1,34.6,29.84,West,262,4.0,15.0,98,0.04,,,0.61,Wunderground v.1.15,2013-05-25 22:47:00,
2013-05-25 18:48:00,35.1,34.6,29.85,NE,49,3.0,15.0,98,0.04,,,0.61,Wunderground v.1.15,2013-05-25 22:48:00,
2013-05-25 18:50:00,35.1,34.6,29.84,NNW,340,1.0,17.0,98,0.04,,,0.61,Wunderground v.1.15,2013-05-25 22:50:00,
2013-05-25 18:52:00,35.1,34.6,29.84,West,264,4.0,6.0,98,0.04,,,0.61,Wunderground v.1.15,2013-05-25 22:52:00,
2013-05-25 18:53:00,35.1,34.6,29.84,North,11,1.0,13.0,98,0.04,,,0.61,Wunderground v.1.15,2013-05-25 22:53:00,
2013-05-25 18:54:00,35.1,34.6,29.85,NNE,25,5.0,13.0,98,0.04,,,0.61,Wunderground v.1.15,2013-05-25 22:54:00,
2013-05-25 18:55:00,35.1,34.6,29.85,NNE,17,5.0,16.0,98,0.04,,,0.61,Wunderground v.1.15,2013-05-25 22:55:00,
2013-05-25 18:57:00,35.1,34.6,29.85,West,267,3.0,16.0,98,0.00,,,0.61,Wunderground v.1.15,2013-05-25 22:57:00,
2013-05-25 18:58:00,35.1,34.6,29.84,West,263,7.0,16.0,98,0.00,,,0.62,Wunderground v.1.15,2013-05-25 22:58:00,
2013-05-25 18:59:00,35.1,34.6,29.85,North,5,6.0,16.0,98,0.00,,,0.62,Wunderground v.1.15,2013-05-25 22:59:00,
2013-05-25 19:00:00,35.1,34.6,29.84,WNW,295,10.0,16.0,98,0.00,,,0.62,Wunderground v.1.15,2013-05-25 23:00:00,
2013-05-25 19:01:00,35.1,34.6,29.85,WNW,283,0.0,5.0,98,0.00,,,0.62,Wunderground v.1.15,2013-05-25 23:01:00,
2013-05-25 19:02:00,35.1,34.6,29.85,West,261,3.0,9.0,98,0.00,,,0.62,Wunderground v.1.15,2013-05-25 23:02:00,
2013-05-25 19:03:00,35.1,34.6,29.85,SSE,148,6.0,12.0,98,0.00,,,0.62,Wunderground v.1.15,2013-05-25 23:03:00,
2013-05-25 19:04:00,35.1,34.6,29.85,NNW,332,11.0,16.0,98,0.00,,,0.62,Wunderground v.1.15,2013-05-25 23:04:00,
2013-05-25 19:05:00,35.1,34.6,29.84,NNW,334,5.0,18.0,98,0.00,,,0.62,Wunderground v.1.15,2013-05-25 23:05:00,
2013-05-25 19:06:00,35.0,34.5,29.85,NNW,348,0.0,18.0,98,0.00,,,0.62,Wunderground v.1.15,2013-05-25 23:06:00,
2013-05-25 19:07:00,35.0,34.5,29.84,WNW,290,3.0,18.0,98,0.00,,,0.62,Wunderground v.1.15,2013-05-25 23:07:00,
2013-05-25 19:09:00,35.0,34.5,29.85,NNW,334,13.0,18.0,98,0.00,,,0.62,Wunderground v.1.15,2013-05-25 23:09:00,
2013-05-25 19:11:00,35.0,34.5,29.85,NW,321,0.0,6.0,98,0.00,,,0.62,Wunderground v.1.15,2013-05-25 23:11:00,
2013-05-25 19:12:00,35.0,34.5,29.85,WNW,299,7.0,9.0,98,0.00,,,0.62,Wunderground v.1.15,2013-05-25 23:12:00,
2013-05-25 19:14:00,35.0,34.5,29.85,SSE,152,2.0,13.0,98,0.00,,,0.62,Wunderground v.1.15,2013-05-25 23:14:00,
2013-05-25 19:16:00,35.0,34.5,29.85,NW,326,3.0,13.0,98,0.00,,,0.63,Wunderground v.1.15,2013-05-25 23:16:00,
2013-05-25 19:17:00,35.0,34.5,29.84,West,277,1.0,13.0,98,0.00,,,0.63,Wunderground v.1.15,2013-05-25 23:17:00,
2013-05-25 19:19:00,35.0,34.5,29.85,NW,317,3.0,13.0,98,0.00,,,0.63,Wunderground v.1.15,2013-05-25 23:19:00,
2013-05-25 19:20:00,35.0,34.5,29.84,NNW,336,9.0,17.0,98,0.00,,,0.63,Wunderground v.1.15,2013-05-25 23:20:00,
2013-05-25 19:22:00,35.0,34.5,29.85,NNW,340,0.0,5.0,98,0.00,,,0.63,Wunderground v.1.15,2013-05-25 23:22:00,
2013-05-25 19:23:00,35.0,34.5,29.85,WNW,290,3.0,7.0,98,0.00,,,0.63,Wunderground v.1.15,2013-05-25 23:23:00,
2013-05-25 19:25:00,35.0,34.5,29.84,NNE,33,4.0,7.0,98,0.00,,,0.63,Wunderground v.1.15,2013-05-25 23:25:00,
2013-05-25 19:27:00,35.0,34.5,29.85,West,277,5.0,7.0,98,0.00,,,0.63,Wunderground v.1.15,2013-05-25 23:27:00,
2013-05-25 19:28:00,35.0,34.5,29.85,West,263,6.0,7.0,98,0.00,,,0.63,Wunderground v.1.15,2013-05-25 23:28:00,
2013-05-25 19:30:00,35.0,34.5,29.85,SSW,196,0.0,3.0,98,0.00,,,0.63,Wunderground v.1.15,2013-05-25 23:30:00,
2013-05-25 19:31:00,35.0,34.5,29.85,SSW,196,0.0,3.0,98,0.00,,,0.63,Wunderground v.1.15,2013-05-25 23:31:00,
2013-05-25 19:32:00,35.0,34.5,29.85,North,11,3.0,13.0,98,0.00,,,0.63,Wunderground v.1.15,2013-05-25 23:32:00,
2013-05-25 19:33:00,35.0,34.5,29.85,NNW,343,5.0,13.0,98,0.00,,,0.63,Wunderground v.1.15,2013-05-25 23:33:00,
2013-05-25 19:36:00,35.0,34.5,29.84,West,263,0.0,13.0,98,0.00,,,0.64,Wunderground v.1.15,2013-05-25 23:36:00,
2013-05-25 19:37:00,35.0,34.5,29.85,SSW,198,5.0,13.0,98,0.00,,,0.64,Wunderground v.1.15,2013-05-25 23:37:00,
2013-05-25 19:38:00,35.0,34.5,29.85,SSE,149,2.0,13.0,98,0.00,,,0.64,Wunderground v.1.15,2013-05-25 23:38:00,
2013-05-25 19:41:00,35.0,34.5,29.84,NW,323,4.0,9.0,98,0.00,,,0.64,Wunderground v.1.15,2013-05-25 23:41:00,
2013-05-25 19:42:00,34.9,34.4,29.85,WSW,242,6.0,9.0,98,0.00,,,0.64,Wunderground v.1.15,2013-05-25 23:42:00,
2013-05-25 19:43:00,34.9,34.4,29.84,NW,325,4.0,10.0,98,0.00,,,0.64,Wunderground v.1.15,2013-05-25 23:43:00,
2013-05-25 19:46:00,34.9,34.4,29.85,WNW,284,5.0,12.0,98,0.00,,,0.64,Wunderground v.1.15,2013-05-25 23:46:00,
2013-05-25 19:47:00,34.9,34.4,29.85,NE,49,0.0,12.0,98,0.00,,,0.64,Wunderground v.1.15,2013-05-25 23:47:00,
2013-05-25 19:48:00,34.9,34.4,29.84,SSW,213,1.0,12.0,98,0.00,,,0.64,Wunderground v.1.15,2013-05-25 23:48:00,
2013-05-25 19:49:00,34.9,34.4,29.84,South,170,0.0,12.0,98,0.00,,,0.64,Wunderground v.1.15,2013-05-25 23:49:00,
2013-05-25 19:51:00,34.9,34.4,29.84,NW,325,4.0,16.0,98,0.00,,,0.64,Wunderground v.1.15,2013-05-25 23:51:00,
2013-05-25 19:52:00,34.9,34.4,29.85,NNE,25,9.0,16.0,98,0.00,,,0.64,Wunderground v.1.15,2013-05-25 23:52:00,
2013-05-25 19:53:00,34.8,34.3,29.84,SSW,211,0.0,16.0,98,0.00,,,0.64,Wunderground v.1.15,2013-05-25 23:53:00,
2013-05-25 19:54:00,34.8,34.3,29.85,NE,41,9.0,16.0,98,0.00,,,0.65,Wunderground v.1.15,2013-05-25 23:54:00,
2013-05-25 19:56:00,34.8,34.3,29.84,NW,313,7.0,17.0,98,0.00,,,0.65,Wunderground v.1.15,2013-05-25 23:56:00,
2013-05-25 19:57:00,34.8,34.3,29.85,NW,319,4.0,17.0,98,0.00,,,0.65,Wunderground v.1.15,2013-05-25 23:57:00,
2013-05-25 19:58:00,34.8,34.3,29.85,NNE,30,0.0,17.0,98,0.00,,,0.65,Wunderground v.1.15,2013-05-25 23:58:00,
2013-05-25 19:59:00,34.8,34.3,29.85,SSW,213,6.0,17.0,98,0.00,,,0.65,Wunderground v.1.15,2013-05-25 23:59:00,
2013-05-25 20:02:00,34.7,34.2,29.85,WNW,302,0.0,8.0,98,0.00,,,0.65,Wunderground v.1.15,2013-05-26 00:02:00,
2013-05-25 20:03:00,34.8,34.3,29.84,NW,323,4.0,10.0,98,0.00,,,0.65,Wunderground v.1.15,2013-05-26 00:03:00,
2013-05-25 20:04:00,34.8,34.3,29.85,ENE,58,1.0,10.0,98,0.00,,,0.65,Wunderground v.1.15,2013-05-26 00:04:00,
2013-05-25 20:07:00,34.7,34.2,29.85,WNW,303,4.0,14.0,98,0.00,,,0.65,Wunderground v.1.15,2013-05-26 00:07:00,
2013-05-25 20:08:00,34.8,34.3,29.85,West,277,3.0,14.0,98,0.00,,,0.65,Wunderground v.1.15,2013-05-26 00:08:00,
2013-05-25 20:09:00,34.7,34.2,29.84,SW,215,2.0,17.0,98,0.00,,,0.65,Wunderground v.1.15,2013-05-26 00:09:00,
2013-05-25 20:10:00,34.8,34.3,29.85,NW,325,5.0,17.0,98,0.00,,,0.65,Wunderground v.1.15,2013-05-26 00:10:00,
2013-05-25 20:12:00,34.7,34.2,29.85,NNW,333,7.0,21.0,98,0.00,,,0.65,Wunderground v.1.15,2013-05-26 00:12:00,
2013-05-25 20:13:00,34.7,34.2,29.85,WNW,290,5.0,21.0,98,0.00,,,0.65,Wunderground v.1.15,2013-05-26 00:13:00,
2013-05-25 20:14:00,34.7,34.2,29.85,NNW,327,6.0,21.0,98,0.00,,,0.65,Wunderground v.1.15,2013-05-26 00:14:00,
2013-05-25 20:15:00,34.8,34.3,29.85,NE,49,5.0,21.0,98,0.00,,,0.65,Wunderground v.1.15,2013-05-26 00:15:00,
2013-05-25 20:17:00,34.8,34.3,29.85,NNW,336,2.0,21.0,98,0.00,,,0.66,Wunderground v.1.15,2013-05-26 00:17:00,
2013-05-25 20:18:00,34.8,34.3,29.85,NNW,344,0.0,21.0,98,0.00,,,0.66,Wunderground v.1.15,2013-05-26 00:18:00,
2013-05-25 20:19:00,34.8,34.3,29.85,SW,236,5.0,21.0,98,0.00,,,0.66,Wunderground v.1.15,2013-05-26 00:19:00,
2013-05-25 20:20:00,34.8,34.3,29.85,WSW,254,2.0,5.0,98,0.00,,,0.66,Wunderground v.1.15,2013-05-26 00:20:00,
2013-05-25 20:22:00,34.8,34.3,29.85,NW,304,4.0,15.0,98,0.00,,,0.66,Wunderground v.1.15,2013-05-26 00:22:00,
2013-05-25 20:24:00,34.8,34.3,29.85,WNW,300,4.0,15.0,98,0.00,,,0.66,Wunderground v.1.15,2013-05-26 00:24:00,
2013-05-25 20:25:00,34.8,34.3,29.85,NW,309,8.0,15.0,98,0.00,,,0.66,Wunderground v.1.15,2013-05-26 00:25:00,
2013-05-25 20:27:00,34.8,34.3,29.85,North,355,0.0,15.0,98,0.00,,,0.66,Wunderground v.1.15,2013-05-26 00:27:00,
2013-05-25 20:29:00,34.8,34.3,29.85,NNW,338,0.0,15.0,98,0.00,,,0.66,Wunderground v.1.15,2013-05-26 00:29:00,
2013-05-25 20:31:00,34.8,34.3,29.85,NNW,336,5.0,5.0,98,0.00,,,0.66,Wunderground v.1.15,2013-05-26 00:31:00,
2013-05-25 20:32:00,34.8,34.3,29.86,NW,312,4.0,11.0,98,0.00,,,0.66,Wunderground v.1.15,2013-05-26 00:32:00,
2013-05-25 20:34:00,34.8,34.3,29.85,North,5,3.0,11.0,98,0.00,,,0.66,Wunderground v.1.15,2013-05-26 00:34:00,
2013-05-25 20:35:00,34.8,34.3,29.85,SW,223,3.0,11.0,98,0.00,,,0.66,Wunderground v.1.15,2013-05-26 00:35:00,
2013-05-25 20:36:00,34.8,34.3,29.85,South,178,0.0,11.0,98,0.00,,,0.67,Wunderground v.1.15,2013-05-26 00:36:00,
2013-05-25 20:37:00,34.8,34.3,29.85,WNW,284,4.0,11.0,98,0.00,,,0.67,Wunderground v.1.15,2013-05-26 00:37:00,
2013-05-25 20:39:00,34.8,34.3,29.85,NNW,342,17.0,17.0,98,0.00,,,0.67,Wunderground v.1.15,2013-05-26 00:39:00,
2013-05-25 20:40:00,34.8,34.3,29.85,North,349,10.0,11.0,98,0.00,,,0.67,Wunderground v.1.15,2013-05-26 00:40:00,
2013-05-25 20:41:00,34.8,34.3,29.85,WSW,250,0.0,11.0,98,0.00,,,0.67,Wunderground v.1.15,2013-05-26 00:41:00,
2013-05-25 20:42:00,34.8,34.3,29.85,NNE,32,11.0,16.0,98,0.00,,,0.67,Wunderground v.1.15,2013-05-26 00:42:00,
2013-05-25 20:45:00,34.9,34.4,29.85,North,349,6.0,16.0,98,0.00,,,0.67,Wunderground v.1.15,2013-05-26 00:45:00,
2013-05-25 20:47:00,34.8,34.3,29.85,NE,49,4.0,16.0,98,0.00,,,0.67,Wunderground v.1.15,2013-05-26 00:47:00,
2013-05-25 20:48:00,34.8,34.3,29.85,WNW,298,3.0,16.0,98,0.00,,,0.67,Wunderground v.1.15,2013-05-26 00:48:00,
2013-05-25 20:50:00,34.9,34.4,29.85,WNW,287,1.0,6.0,98,0.00,,,0.67,Wunderground v.1.15,2013-05-26 00:50:00,
2013-05-25 20:51:00,34.9,34.4,29.85,NE,55,1.0,6.0,98,0.00,,,0.67,Wunderground v.1.15,2013-05-26 00:51:00,
2013-05-25 20:52:00,34.9,34.4,29.85,NW,321,1.0,6.0,98,0.00,,,0.67,Wunderground v.1.15,2013-05-26 00:52:00,
2013-05-25 20:53:00,34.9,34.4,29.85,NW,317,6.0,6.0,98,0.00,,,0.67,Wunderground v.1.15,2013-05-26 00:53:00,
2013-05-25 20:56:00,34.9,34.4,29.85,WSW,249,6.0,13.0,98,0.00,,,0.67,Wunderground v.1.15,2013-05-26 00:56:00,
2013-05-25 20:57:00,35.0,34.5,29.85,NW,323,8.0,13.0,98,0.00,,,0.68,Wunderground v.1.15,2013-05-26 00:57:00,
2013-05-25 20:58:00,35.0,34.5,29.85,NW,321,3.0,13.0,98,0.00,,,0.68,Wunderground v.1.15,2013-05-26 00:58:00,
2013-05-25 21:01:00,35.0,34.5,29.85,NW,309,3.0,14.0,98,0.00,,,0.68,Wunderground v.1.15,2013-05-26 01:01:00,
2013-05-25 21:02:00,35.0,34.5,29.85,NNW,329,1.0,14.0,98,0.00,,,0.68,Wunderground v.1.15,2013-05-26 01:02:00,
2013-05-25 21:03:00,35.0,34.5,29.85,WNW,290,8.0,14.0,98,0.00,,,0.68,Wunderground v.1.15,2013-05-26 01:03:00,
2013-05-25 21:06:00,35.1,34.6,29.85,NW,319,2.0,14.0,98,0.00,,,0.68,Wunderground v.1.15,2013-05-26 01:06:00,
2013-05-25 21:07:00,35.1,34.6,29.85,NNW,340,4.0,14.0,98,0.00,,,0.68,Wunderground v.1.15,2013-05-26 01:07:00,
2013-05-25 21:08:00,35.1,34.6,29.85,North,360,2.0,14.0,98,0.00,,,0.68,Wunderground v.1.15,2013-05-26 01:08:00,
2013-05-25 21:09:00,35.1,34.6,29.85,NE,43,4.0,14.0,98,0.00,,,0.68,Wunderground v.1.15,2013-05-26 01:09:00,
2013-05-25 21:11:00,35.1,34.6,29.85,NW,306,4.0,8.0,98,0.00,,,0.68,Wunderground v.1.15,2013-05-26 01:11:00,
2013-05-25 21:12:00,35.1,34.6,29.85,ENE,57,17.0,20.0,98,0.00,,,0.68,Wunderground v.1.15,2013-05-26 01:12:00,
2013-05-25 21:14:00,35.1,34.6,29.84,SE,145,7.0,20.0,98,0.00,,,0.68,Wunderground v.1.15,2013-05-26 01:14:00,
2013-05-25 21:17:00,35.2,34.7,29.85,North,5,8.0,20.0,98,0.00,,,0.68,Wunderground v.1.15,2013-05-26 01:17:00,
2013-05-25 21:19:00,35.2,34.7,29.85,SSW,209,4.0,20.0,98,0.00,,,0.68,Wunderground v.1.15,2013-05-26 01:19:00,
2013-05-25 21:22:00,35.2,34.7,29.84,West,277,0.0,6.0,98,0.00,,,0.69,Wunderground v.1.15,2013-05-26 01:22:00,
2013-05-25 21:23:00,35.2,34.7,29.84,North,5,4.0,14.0,98,0.00,,,0.69,Wunderground v.1.15,2013-05-26 01:23:00,
2013-05-25 21:25:00,35.2,34.7,29.84,NNW,340,0.0,14.0,98,0.00,,,0.69,Wunderground v.1.15,2013-05-26 01:25:00,
2013-05-25 21:27:00,35.2,34.7,29.84,NNW,329,5.0,14.0,98,0.00,,,0.69,Wunderground v.1.15,2013-05-26 01:27:00,
2013-05-25 21:28:00,35.2,34.7,29.84,NNE,17,2.0,14.0,98,0.00,,,0.69,Wunderground v.1.15,2013-05-26 01:28:00,
2013-05-25 21:30:00,35.2,34.7,29.84,West,281,3.0,5.0,98,0.00,,,0.69,Wunderground v.1.15,2013-05-26 01:30:00,
2013-05-25 21:32:00,35.2,34.7,29.84,NNW,336,3.0,16.0,98,0.00,,,0.69,Wunderground v.1.15,2013-05-26 01:32:00,
2013-05-25 21:33:00,35.2,34.7,29.84,SW,230,4.0,16.0,98,0.00,,,0.69,Wunderground v.1.15,2013-05-26 01:33:00,
2013-05-25 21:36:00,35.2,34.7,29.84,WNW,289,3.0,16.0,98,0.00,,,0.69,Wunderground v.1.15,2013-05-26 01:36:00,
2013-05-25 21:37:00,35.2,34.7,29.85,NNW,333,0.0,19.0,98,0.00,,,0.69,Wunderground v.1.15,2013-05-26 01:37:00,
2013-05-25 21:38:00,35.3,34.8,29.85,NNE,13,14.0,19.0,98,0.00,,,0.69,Wunderground v.1.15,2013-05-26 01:38:00,
2013-05-25 21:41:00,35.3,34.8,29.84,SSW,204,2.0,14.0,98,0.00,,,0.69,Wunderground v.1.15,2013-05-26 01:41:00,
2013-05-25 21:43:00,35.3,34.8,29.84,East,87,4.0,16.0,98,0.00,,,0.69,Wunderground v.1.15,2013-05-26 01:43:00,
2013-05-25 21:44:00,35.3,34.8,29.84,NW,323,7.0,16.0,98,0.00,,,0.69,Wunderground v.1.15,2013-05-26 01:44:00,
2013-05-25 21:46:00,35.3,34.8,29.84,North,355,6.0,16.0,98,0.00,,,0.70,Wunderground v.1.15,2013-05-26 01:46:00,
2013-05-25 21:48:00,35.3,34.8,29.84,NNW,336,2.0,16.0,98,0.00,,,0.70,Wunderground v.1.15,2013-05-26 01:48:00,
2013-05-25 21:49:00,35.3,34.8,29.84,NW,307,5.0,16.0,98,0.00,,,0.70,Wunderground v.1.15,2013-05-26 01:49:00,
2013-05-25 21:50:00,35.2,34.7,29.84,West,269,6.0,6.0,98,0.00,,,0.70,Wunderground v.1.15,2013-05-26 01:50:00,
2013-05-25 21:51:00,35.2,34.7,29.84,NE,37,2.0,15.0,98,0.00,,,0.70,Wunderground v.1.15,2013-05-26 01:51:00,
2013-05-25 21:53:00,35.2,34.7,29.84,North,360,10.0,15.0,98,0.00,,,0.70,Wunderground v.1.15,2013-05-26 01:53:00,
2013-05-25 21:54:00,35.2,34.7,29.84,North,350,6.0,15.0,98,0.00,,,0.70,Wunderground v.1.15,2013-05-26 01:54:00,
2013-05-25 21:55:00,35.2,34.7,29.84,North,5,3.0,15.0,98,0.00,,,0.70,Wunderground v.1.15,2013-05-26 01:55:00,
2013-05-25 21:56:00,35.2,34.7,29.84,NW,310,5.0,15.0,98,0.00,,,0.70,Wunderground v.1.15,2013-05-26 01:56:00,
2013-05-25 21:59:00,35.2,34.7,29.84,NW,323,2.0,15.0,98,0.00,,,0.70,Wunderground v.1.15,2013-05-26 01:59:00,
2013-05-25 22:00:00,35.2,34.7,29.85,NNW,344,10.0,15.0,98,0.00,,,0.70,Wunderground v.1.15,2013-05-26 02:00:00,
2013-05-25 22:01:00,35.2,34.7,29.84,NW,313,6.0,11.0,98,0.00,,,0.70,Wunderground v.1.15,2013-05-26 02:01:00,
2013-05-25 22:02:00,35.2,34.7,29.84,NNE,26,1.0,13.0,98,0.00,,,0.70,Wunderground v.1.15,2013-05-26 02:02:00,
2013-05-25 22:04:00,35.2,34.7,29.84,West,281,5.0,13.0,98,0.00,,,0.70,Wunderground v.1.15,2013-05-26 02:04:00,
2013-05-25 22:05:00,35.2,34.7,29.84,NE,35,6.0,13.0,98,0.00,,,0.70,Wunderground v.1.15,2013-05-26 02:05:00,
2013-05-25 22:06:00,35.3,34.8,29.84,WNW,294,0.0,16.0,98,0.00,,,0.71,Wunderground v.1.15,2013-05-26 02:06:00,
2013-05-25 22:07:00,35.3,34.8,29.84,East,98,2.0,16.0,98,0.00,,,0.71,Wunderground v.1.15,2013-05-26 02:07:00,
2013-05-25 22:09:00,35.2,34.7,29.84,NE,49,3.0,16.0,98,0.00,,,0.71,Wunderground v.1.15,2013-05-26 02:09:00,
2013-05-25 22:10:00,35.2,34.7,29.84,SW,226,1.0,16.0,98,0.00,,,0.71,Wunderground v.1.15,2013-05-26 02:10:00,
2013-05-25 22:11:00,35.1,34.6,29.84,NNE,24,1.0,7.0,98,0.00,,,0.71,Wunderground v.1.15,2013-05-26 02:11:00,
2013-05-25 22:12:00,35.1,34.6,29.84,West,273,9.0,9.0,98,0.00,,,0.71,Wunderground v.1.15,2013-05-26 02:12:00,
2013-05-25 22:14:00,34.9,34.4,29.84,ENE,57,2.0,10.0,98,0.00,,,0.71,Wunderground v.1.15,2013-05-26 02:14:00,
2013-05-25 22:15:00,34.8,34.3,29.84,SE,142,0.0,10.0,98,0.00,,,0.71,Wunderground v.1.15,2013-05-26 02:15:00,
2013-05-25 22:16:00,34.8,34.3,29.84,NNE,12,7.0,10.0,98,0.00,,,0.71,Wunderground v.1.15,2013-05-26 02:16:00,
2013-05-25 22:17:00,34.7,34.2,29.84,NNE,19,6.0,10.0,98,0.00,,,0.71,Wunderground v.1.15,2013-05-26 02:17:00,
2013-05-25 22:20:00,34.6,34.1,29.84,WSW,254,4.0,10.0,98,0.00,,,0.71,Wunderground v.1.15,2013-05-26 02:20:00,
2013-05-25 22:21:00,34.6,34.1,29.84,SSW,209,3.0,7.0,98,0.00,,,0.71,Wunderground v.1.15,2013-05-26 02:21:00,
2013-05-25 22:22:00,34.5,34.0,29.84,North,5,11.0,11.0,98,0.00,,,0.71,Wunderground v.1.15,2013-05-26 02:22:00,
2013-05-25 22:25:00,34.5,34.0,29.84,NNW,338,2.0,11.0,98,0.00,,,0.71,Wunderground v.1.15,2013-05-26 02:25:00,
2013-05-25 22:26:00,34.4,33.9,29.84,WSW,255,2.0,11.0,98,0.00,,,0.71,Wunderground v.1.15,2013-05-26 02:26:00,
2013-05-25 22:27:00,34.4,33.9,29.83,WSW,257,0.0,11.0,98,0.00,,,0.72,Wunderground v.1.15,2013-05-26 02:27:00,
2013-05-25 22:28:00,34.4,33.9,29.83,WSW,257,0.0,11.0,98,0.00,,,0.72,Wunderground v.1.15,2013-05-26 02:28:00,
2013-05-25 22:30:00,34.4,33.9,29.83,NW,325,2.0,11.0,98,0.00,,,0.72,Wunderground v.1.15,2013-05-26 02:30:00,
2013-05-25 22:32:00,34.4,33.9,29.83,NNW,346,4.0,6.0,98,0.00,,,0.72,Wunderground v.1.15,2013-05-26 02:32:00,
2013-05-25 22:33:00,34.4,33.9,29.83,WNW,286,3.0,8.0,98,0.00,,,0.72,Wunderground v.1.15,2013-05-26 02:33:00,
2013-05-25 22:35:00,34.4,33.9,29.83,NNW,329,9.0,9.0,98,0.00,,,0.72,Wunderground v.1.15,2013-05-26 02:35:00,
2013-05-25 22:36:00,34.4,33.9,29.83,NW,325,6.0,11.0,98,0.00,,,0.72,Wunderground v.1.15,2013-05-26 02:36:00,
2013-05-25 22:37:00,34.5,34.0,29.83,WNW,284,2.0,11.0,98,0.00,,,0.72,Wunderground v.1.15,2013-05-26 02:37:00,
2013-05-25 22:38:00,34.5,34.0,29.83,West,274,0.0,11.0,98,0.00,,,0.72,Wunderground v.1.15,2013-05-26 02:38:00,
2013-05-25 22:40:00,34.6,34.1,29.83,NW,313,4.0,4.0,98,0.00,,,0.72,Wunderground v.1.15,2013-05-26 02:40:00,
2013-05-25 22:41:00,34.6,34.1,29.83,West,273,5.0,10.0,98,0.00,,,0.72,Wunderground v.1.15,2013-05-26 02:41:00,
2013-05-25 22:43:00,34.7,34.2,29.83,NNW,346,2.0,10.0,98,0.00,,,0.72,Wunderground v.1.15,2013-05-26 02:43:00,
2013-05-25 22:45:00,34.7,34.2,29.83,NW,325,10.0,11.0,98,0.00,,,0.72,Wunderground v.1.15,2013-05-26 02:45:00,
2013-05-25 22:46:00,34.7,34.2,29.83,SSW,194,6.0,11.0,98,0.00,,,0.72,Wunderground v.1.15,2013-05-26 02:46:00,
2013-05-25 22:48:00,34.8,34.3,29.83,WNW,284,5.0,11.0,98,0.00,,,0.73,Wunderground v.1.15,2013-05-26 02:48:00,
2013-05-25 22:49:00,34.8,34.3,29.83,WNW,296,0.0,11.0,98,0.00,,,0.73,Wunderground v.1.15,2013-05-26 02:49:00,
2013-05-25 22:51:00,34.7,34.2,29.83,NNW,344,4.0,4.0,98,0.00,,,0.73,Wunderground v.1.15,2013-05-26 02:51:00,
2013-05-25 22:53:00,34.7,34.2,29.83,South,176,0.0,8.0,98,0.00,,,0.73,Wunderground v.1.15,2013-05-26 02:53:00,
2013-05-25 22:54:00,34.7,34.2,29.83,South,171,2.0,8.0,98,0.00,,,0.73,Wunderground v.1.15,2013-05-26 02:54:00,
2013-05-25 22:56:00,34.7,34.2,29.84,NE,53,2.0,8.0,98,0.00,,,0.73,Wunderground v.1.15,2013-05-26 02:56:00,
2013-05-25 22:58:00,34.7,34.2,29.84,NW,321,4.0,9.0,98,0.00,,,0.73,Wunderground v.1.15,2013-05-26 02:58:00,
2013-05-25 22:59:00,34.7,34.2,29.83,NNW,345,3.0,9.0,98,0.00,,,0.73,Wunderground v.1.15,2013-05-26 02:59:00,
2013-05-25 23:01:00,34.7,34.2,29.83,WNW,285,6.0,11.0,98,0.00,,,0.73,Wunderground v.1.15,2013-05-26 03:01:00,
2013-05-25 23:03:00,34.6,34.1,29.83,NNW,341,2.0,11.0,98,0.00,,,0.73,Wunderground v.1.15,2013-05-26 03:03:00,
2013-05-25 23:04:00,34.6,34.1,29.83,NW,325,6.0,11.0,98,0.00,,,0.73,Wunderground v.1.15,2013-05-26 03:04:00,
2013-05-25 23:05:00,34.6,34.1,29.83,WSW,244,10.0,11.0,98,0.00,,,0.73,Wunderground v.1.15,2013-05-26 03:05:00,
2013-05-25 23:06:00,34.5,34.0,29.83,SSW,209,6.0,11.0,98,0.00,,,0.73,Wunderground v.1.15,2013-05-26 03:06:00,
2013-05-25 23:09:00,34.4,33.9,29.83,NNE,27,4.0,11.0,98,0.00,,,0.74,Wunderground v.1.15,2013-05-26 03:09:00,
2013-05-25 23:10:00,34.4,33.9,29.83,NNE,24,4.0,11.0,98,0.00,,,0.74,Wunderground v.1.15,2013-05-26 03:10:00,
2013-05-25 23:12:00,34.2,33.7,29.83,NW,311,0.0,15.0,98,0.00,,,0.74,Wunderground v.1.15,2013-05-26 03:12:00,
2013-05-25 23:14:00,34.1,33.6,29.83,NW,313,4.0,15.0,98,0.00,,,0.74,Wunderground v.1.15,2013-05-26 03:14:00,
2013-05-25 23:15:00,34.1,33.6,29.83,South,186,0.0,15.0,98,0.00,,,0.74,Wunderground v.1.15,2013-05-26 03:15:00,
2013-05-25 23:17:00,34.0,33.5,29.83,West,269,4.0,15.0,98,0.00,,,0.74,Wunderground v.1.15,2013-05-26 03:17:00,
2013-05-25 23:19:00,33.9,33.4,29.83,NNW,339,11.0,15.0,98,0.00,,,0.74,Wunderground v.1.15,2013-05-26 03:19:00,
2013-05-25 23:20:00,33.9,33.4,29.83,NW,325,6.0,8.0,98,0.00,,,0.74,Wunderground v.1.15,2013-05-26 03:20:00,
2013-05-25 23:22:00,33.9,33.4,29.83,South,185,2.0,10.0,98,0.00,,,0.74,Wunderground v.1.15,2013-05-26 03:22:00,
2013-05-25 23:25:00,33.8,33.3,29.83,North,350,4.0,10.0,98,0.00,,,0.74,Wunderground v.1.15,2013-05-26 03:25:00,
2013-05-25 23:27:00,33.8,33.3,29.82,NW,315,10.0,13.0,98,0.00,,,0.75,Wunderground v.1.15,2013-05-26 03:27:00,
2013-05-25 23:28:00,33.8,33.3,29.82,West,277,0.0,13.0,98,0.00,,,0.75,Wunderground v.1.15,2013-05-26 03:28:00,
2013-05-25 23:30:00,33.7,33.2,29.82,NNW,336,3.0,13.0,98,0.00,,,0.75,Wunderground v.1.15,2013-05-26 03:30:00,
2013-05-25 23:32:00,33.7,33.2,29.82,WSW,248,6.0,6.0,98,0.00,,,0.75,Wunderground v.1.15,2013-05-26 03:32:00,
2013-05-25 23:34:00,33.7,33.2,29.83,NNE,31,1.0,9.0,98,0.00,,,0.75,Wunderground v.1.15,2013-05-26 03:34:00,
2013-05-25 23:35:00,33.7,33.2,29.82,North,355,0.0,9.0,98,0.00,,,0.75,Wunderground v.1.15,2013-05-26 03:35:00,
2013-05-25 23:36:00,33.7,33.2,29.82,North,360,2.0,9.0,98,0.00,,,0.75,Wunderground v.1.15,2013-05-26 03:36:00,
2013-05-25 23:38:00,33.7,33.2,29.82,West,261,2.0,9.0,98,0.00,,,0.75,Wunderground v.1.15,2013-05-26 03:38:00,
2013-05-25 23:41:00,33.6,33.1,29.83,NNW,327,3.0,3.0,98,0.00,,,0.75,Wunderground v.1.15,2013-05-26 03:41:00,
2013-05-25 23:42:00,33.7,33.2,29.82,NW,310,1.0,11.0,98,0.00,,,0.75,Wunderground v.1.15,2013-05-26 03:42:00,
2013-05-25 23:43:00,33.6,33.1,29.82,WSW,245,1.0,11.0,98,0.00,,,0.75,Wunderground v.1.15,2013-05-26 03:43:00,
2013-05-25 23:46:00,33.6,33.1,29.82,NNW,341,0.0,11.0,98,0.00,,,0.75,Wunderground v.1.15,2013-05-26 03:46:00,
2013-05-25 23:47:00,33.6,33.1,29.82,NNE,17,0.0,11.0,98,0.00,,,0.75,Wunderground v.1.15,2013-05-26 03:47:00,
2013-05-25 23:49:00,33.5,33.0,29.82,West,271,0.0,11.0,98,0.00,,,0.75,Wunderground v.1.15,2013-05-26 03:49:00,
2013-05-25 23:51:00,33.5,33.0,29.82,WNW,285,3.0,3.0,98,0.00,,,0.75,Wunderground v.1.15,2013-05-26 03:51:00,
2013-05-25 23:52:00,33.5,33.0,29.82,WSW,247,1.0,4.0,98,0.00,,,0.75,Wunderground v.1.15,2013-05-26 03:52:00,
2013-05-25 23:54:00,33.4,32.9,29.82,NE,38,10.0,10.0,98,0.00,,,0.76,Wunderground v.1.15,2013-05-26 03:54:00,
2013-05-25 23:56:00,33.4,32.9,29.82,SSW,195,2.0,12.0,98,0.00,,,0.76,Wunderground v.1.15,2013-05-26 03:56:00,
2013-05-25 23:57:00,33.4,32.9,29.82,NNW,339,9.0,13.0,98,0.00,,,0.76,Wunderground v.1.15,2013-05-26 03:57:00,
2013-05-25 23:58:00,33.4,32.9,29.82,WSW,254,3.0,13.0,98,0.00,,,0.76,Wunderground v.1.15,2013-05-26 03:58:00,
2013-05-25 23:59:00,33.3,32.8,29.82,North,5,6.0,13.0,98,0.00,,,0.76,Wunderground v.1.15,2013-05-26 03:59:00,